Time,TemperatureF,DewpointF,PressureIn,WindDirection,WindDirectionDegrees,WindSpeedMPH,WindSpeedGustMPH,Humidity,HourlyPrecipIn,Conditions,Clouds,dailyrainin,SoftwareType,DateUTC
2013-03-26 00:00:00,40.3,6.4,27.26,NE,38,0.0,0.0,24,0.00,,,0.00,VWS V14.00,2013-03-26 06:00:00,
2013-03-26 00:02:00,40.3,6.4,27.26,NE,38,0.0,2.2,24,0.00,,,0.00,VWS V14.00,2013-03-26 06:02:00,
2013-03-26 00:03:00,40.3,6.4,27.26,NE,38,2.7,2.7,24,0.00,,,0.00,VWS V14.00,2013-03-26 06:03:00,
2013-03-26 00:04:00,40.6,6.7,27.23,NE,38,2.2,4.0,24,0.00,,,0.00,VWS V14.00,2013-03-26 06:04:00,
2013-03-26 00:05:00,41.0,6.1,27.23,NE,38,3.1,5.4,23,0.00,,,0.00,VWS V14.00,2013-03-26 06:05:00,
2013-03-26 00:08:00,41.4,6.4,27.23,NE,38,0.0,5.4,23,0.00,,,0.00,VWS V14.00,2013-03-26 06:08:00,
2013-03-26 00:09:00,41.2,6.2,27.23,NE,38,0.0,5.4,23,0.00,,,0.00,VWS V14.00,2013-03-26 06:09:00,
2013-03-26 00:11:00,41.0,6.1,27.23,NE,38,0.0,5.4,23,0.00,,,0.00,VWS V14.00,2013-03-26 06:11:00,
2013-03-26 00:13:00,40.3,6.4,27.23,NE,38,0.0,0.0,24,0.00,,,0.00,VWS V14.00,2013-03-26 06:13:00,
2013-03-26 00:14:00,40.1,6.2,27.23,NE,38,0.0,0.0,24,0.00,,,0.00,VWS V14.00,2013-03-26 06:14:00,
2013-03-26 00:16:00,39.7,5.9,27.23,NE,38,0.0,0.0,24,0.00,,,0.00,VWS V14.00,2013-03-26 06:16:00,
2013-03-26 00:19:00,39.2,5.4,27.23,NE,38,0.0,0.0,24,0.00,,,0.00,VWS V14.00,2013-03-26 06:19:00,
2013-03-26 00:20:00,38.8,5.2,27.23,NE,38,0.0,0.0,24,0.00,,,0.00,VWS V14.00,2013-03-26 06:20:00,
2013-03-26 00:21:00,38.8,5.2,27.23,NE,38,0.0,0.0,24,0.00,,,0.00,VWS V14.00,2013-03-26 06:21:00,
2013-03-26 00:22:00,38.8,5.2,27.23,NE,38,0.0,0.0,24,0.00,,,0.00,VWS V14.00,2013-03-26 06:22:00,
2013-03-26 00:24:00,38.7,5.0,27.23,NE,38,0.0,0.0,24,0.00,,,0.00,VWS V14.00,2013-03-26 06:24:00,
2013-03-26 00:26:00,38.5,4.8,27.23,NE,38,0.0,0.0,24,0.00,,,0.00,VWS V14.00,2013-03-26 06:26:00,
2013-03-26 00:27:00,38.5,4.8,27.23,NE,38,0.0,0.0,24,0.00,,,0.00,VWS V14.00,2013-03-26 06:27:00,
2013-03-26 00:29:00,38.3,4.7,27.23,NE,38,0.0,0.0,24,0.00,,,0.00,VWS V14.00,2013-03-26 06:29:00,
2013-03-26 00:32:00,38.1,4.5,27.23,NE,38,0.0,0.0,24,0.00,,,0.00,VWS V14.00,2013-03-26 06:32:00,
2013-03-26 00:34:00,37.8,4.2,27.23,NE,38,0.0,0.0,24,0.00,,,0.00,VWS V14.00,2013-03-26 06:34:00,
2013-03-26 00:38:00,37.2,4.7,27.23,NE,38,0.0,0.0,25,0.00,,,0.00,VWS V14.00,2013-03-26 06:38:00,
2013-03-26 00:39:00,37.2,4.7,27.23,NE,38,0.0,0.0,25,0.00,,,0.00,VWS V14.00,2013-03-26 06:39:00,
2013-03-26 00:40:00,37.2,4.7,27.23,NE,38,0.0,0.0,25,0.00,,,0.00,VWS V14.00,2013-03-26 06:40:00,
2013-03-26 00:43:00,37.2,4.7,27.23,NE,38,0.0,0.0,25,0.00,,,0.00,VWS V14.00,2013-03-26 06:43:00,
2013-03-26 00:44:00,37.2,4.7,27.23,NE,38,0.0,0.0,25,0.00,,,0.00,VWS V14.00,2013-03-26 06:44:00,
2013-03-26 00:45:00,37.2,4.7,27.23,NE,38,0.0,0.0,25,0.00,,,0.00,VWS V14.00,2013-03-26 06:45:00,
2013-03-26 00:48:00,37.2,4.7,27.23,NE,38,0.0,0.0,25,0.00,,,0.00,VWS V14.00,2013-03-26 06:48:00,
2013-03-26 00:50:00,37.0,4.5,27.23,NE,38,0.0,0.0,25,0.00,,,0.00,VWS V14.00,2013-03-26 06:50:00,
2013-03-26 00:52:00,37.2,4.7,27.23,NE,38,0.0,0.0,25,0.00,,,0.00,VWS V14.00,2013-03-26 06:52:00,
2013-03-26 00:53:00,37.4,3.9,27.23,NE,38,0.0,0.0,24,0.00,,,0.00,VWS V14.00,2013-03-26 06:53:00,
2013-03-26 00:57:00,37.4,3.9,27.23,NE,38,0.0,0.0,24,0.00,,,0.00,VWS V14.00,2013-03-26 06:57:00,
2013-03-26 00:58:00,37.4,3.9,27.23,NE,38,0.0,0.0,24,0.00,,,0.00,VWS V14.00,2013-03-26 06:58:00,
2013-03-26 01:02:00,37.8,4.2,27.23,NE,38,0.0,0.0,24,0.00,,,0.00,VWS V14.00,2013-03-26 07:02:00,
2013-03-26 01:03:00,37.6,4.1,27.23,NE,38,0.0,0.0,24,0.00,,,0.00,VWS V14.00,2013-03-26 07:03:00,
2013-03-26 01:04:00,37.4,3.9,27.20,NE,38,0.0,0.0,24,0.00,,,0.00,VWS V14.00,2013-03-26 07:04:00,
2013-03-26 01:07:00,37.0,4.5,27.20,NE,38,0.0,0.0,25,0.00,,,0.00,VWS V14.00,2013-03-26 07:07:00,
2013-03-26 01:08:00,37.4,3.9,27.20,NE,38,0.0,0.0,24,0.00,,,0.00,VWS V14.00,2013-03-26 07:08:00,
2013-03-26 01:10:00,37.4,3.9,27.20,NE,38,0.0,0.0,24,0.00,,,0.00,VWS V14.00,2013-03-26 07:10:00,
2013-03-26 01:12:00,37.6,4.1,27.20,NE,38,0.0,0.0,24,0.00,,,0.00,VWS V14.00,2013-03-26 07:12:00,
2013-03-26 01:13:00,37.4,3.9,27.20,NE,38,0.0,0.0,24,0.00,,,0.00,VWS V14.00,2013-03-26 07:13:00,
2013-03-26 01:15:00,37.0,4.5,27.20,NE,38,0.0,0.0,25,0.00,,,0.00,VWS V14.00,2013-03-26 07:15:00,
2013-03-26 01:17:00,37.2,4.7,27.20,NE,38,0.0,0.0,25,0.00,,,0.00,VWS V14.00,2013-03-26 07:17:00,
2013-03-26 01:18:00,37.2,4.7,27.20,NE,38,0.0,0.0,25,0.00,,,0.00,VWS V14.00,2013-03-26 07:18:00,
2013-03-26 01:19:00,37.0,4.5,27.20,NE,38,0.0,0.0,25,0.00,,,0.00,VWS V14.00,2013-03-26 07:19:00,
2013-03-26 01:22:00,36.9,4.3,27.20,NE,38,0.0,0.0,25,0.00,,,0.00,VWS V14.00,2013-03-26 07:22:00,
2013-03-26 01:23:00,36.9,4.3,27.20,NE,38,0.0,0.0,25,0.00,,,0.00,VWS V14.00,2013-03-26 07:23:00,
2013-03-26 01:24:00,37.0,4.5,27.20,NE,38,0.0,0.0,25,0.00,,,0.00,VWS V14.00,2013-03-26 07:24:00,
2013-03-26 01:28:00,36.9,4.3,27.20,NE,38,0.0,0.0,25,0.00,,,0.00,VWS V14.00,2013-03-26 07:28:00,
2013-03-26 01:29:00,36.9,4.3,27.20,NE,38,0.0,0.0,25,0.00,,,0.00,VWS V14.00,2013-03-26 07:29:00,
2013-03-26 01:30:00,36.5,4.0,27.20,NE,38,0.0,0.0,25,0.00,,,0.00,VWS V14.00,2013-03-26 07:30:00,
2013-03-26 01:33:00,35.8,3.4,27.20,NE,38,0.0,0.0,25,0.00,,,0.00,VWS V14.00,2013-03-26 07:33:00,
2013-03-26 01:34:00,35.6,3.3,27.20,NE,38,0.0,0.0,25,0.00,,,0.00,VWS V14.00,2013-03-26 07:34:00,
2013-03-26 01:35:00,35.6,3.3,27.20,NE,38,0.0,0.0,25,0.00,,,0.00,VWS V14.00,2013-03-26 07:35:00,
2013-03-26 01:38:00,34.9,2.6,27.20,NE,38,0.0,0.0,25,0.00,,,0.00,VWS V14.00,2013-03-26 07:38:00,
2013-03-26 01:40:00,34.5,2.3,27.20,NE,38,0.0,0.0,25,0.00,,,0.00,VWS V14.00,2013-03-26 07:40:00,
2013-03-26 01:41:00,34.5,2.3,27.20,NE,38,0.0,0.0,25,0.00,,,0.00,VWS V14.00,2013-03-26 07:41:00,
2013-03-26 01:44:00,34.3,2.2,27.20,NE,38,0.0,0.0,25,0.00,,,0.00,VWS V14.00,2013-03-26 07:44:00,
2013-03-26 01:45:00,34.2,2.0,27.20,NE,38,0.0,0.0,25,0.00,,,0.00,VWS V14.00,2013-03-26 07:45:00,
2013-03-26 01:46:00,34.2,2.0,27.20,NE,38,0.0,0.0,25,0.00,,,0.00,VWS V14.00,2013-03-26 07:46:00,
2013-03-26 01:49:00,34.0,1.9,27.17,NE,38,0.0,0.0,25,0.00,,,0.00,VWS V14.00,2013-03-26 07:49:00,
2013-03-26 01:51:00,33.8,1.7,27.17,NE,38,0.0,0.0,25,0.00,,,0.00,VWS V14.00,2013-03-26 07:51:00,
2013-03-26 01:54:00,33.6,1.6,27.17,NE,38,0.0,0.0,25,0.00,,,0.00,VWS V14.00,2013-03-26 07:54:00,
2013-03-26 01:55:00,33.6,1.6,27.17,NE,38,0.0,0.0,25,0.00,,,0.00,VWS V14.00,2013-03-26 07:55:00,
2013-03-26 01:56:00,33.4,1.4,27.17,NE,38,0.0,0.0,25,0.00,,,0.00,VWS V14.00,2013-03-26 07:56:00,
2013-03-26 01:57:00,33.4,1.4,27.17,NE,38,0.0,0.0,25,0.00,,,0.00,VWS V14.00,2013-03-26 07:57:00,
2013-03-26 01:59:00,33.1,1.1,27.17,NE,38,0.0,0.0,25,0.00,,,0.00,VWS V14.00,2013-03-26 07:59:00,
2013-03-26 02:00:00,33.1,1.1,27.17,NE,38,0.0,0.0,25,0.00,,,0.00,VWS V14.00,2013-03-26 08:00:00,
2013-03-26 02:02:00,33.1,1.1,27.17,NE,38,0.0,0.0,25,0.00,,,0.00,VWS V14.00,2013-03-26 08:02:00,
2013-03-26 02:05:00,32.5,0.6,27.17,NE,38,0.0,0.0,25,0.00,,,0.00,VWS V14.00,2013-03-26 08:05:00,
2013-03-26 02:07:00,32.5,0.6,27.17,NE,38,0.0,0.0,25,0.00,,,0.00,VWS V14.00,2013-03-26 08:07:00,
2013-03-26 02:10:00,32.5,0.6,27.17,NE,38,0.0,0.0,25,0.00,,,0.00,VWS V14.00,2013-03-26 08:10:00,
2013-03-26 02:12:00,32.2,0.3,27.17,NE,38,0.0,0.0,25,0.00,,,0.00,VWS V14.00,2013-03-26 08:12:00,
2013-03-26 02:13:00,32.2,0.3,27.17,NE,38,0.0,0.0,25,0.00,,,0.00,VWS V14.00,2013-03-26 08:13:00,
2013-03-26 02:14:00,31.8,0.0,27.17,NE,38,0.0,0.0,25,0.00,,,0.00,VWS V14.00,2013-03-26 08:14:00,
2013-03-26 02:17:00,31.8,0.9,27.17,NE,38,0.0,0.0,26,0.00,,,0.00,VWS V14.00,2013-03-26 08:17:00,
2013-03-26 02:18:00,31.5,0.5,27.17,NE,38,0.0,0.0,26,0.00,,,0.00,VWS V14.00,2013-03-26 08:18:00,
2013-03-26 02:20:00,31.6,0.7,27.17,NE,38,0.0,0.0,26,0.00,,,0.00,VWS V14.00,2013-03-26 08:20:00,
2013-03-26 02:22:00,31.3,0.4,27.17,NE,38,0.0,0.0,26,0.00,,,0.00,VWS V14.00,2013-03-26 08:22:00,
2013-03-26 02:23:00,31.1,0.2,27.17,NE,38,0.0,0.0,26,0.00,,,0.00,VWS V14.00,2013-03-26 08:23:00,
2013-03-26 02:25:00,31.3,0.4,27.17,NE,38,0.0,0.0,26,0.00,,,0.00,VWS V14.00,2013-03-26 08:25:00,
2013-03-26 02:28:00,31.5,0.5,27.17,NE,38,0.0,0.0,26,0.00,,,0.00,VWS V14.00,2013-03-26 08:28:00,
2013-03-26 02:31:00,31.3,0.4,27.17,NE,38,0.0,0.0,26,0.00,,,0.00,VWS V14.00,2013-03-26 08:31:00,
2013-03-26 02:32:00,31.3,0.4,27.17,NE,38,0.0,0.0,26,0.00,,,0.00,VWS V14.00,2013-03-26 08:32:00,
2013-03-26 02:33:00,32.0,1.0,27.17,NE,38,0.0,0.0,26,0.00,,,0.00,VWS V14.00,2013-03-26 08:33:00,
2013-03-26 02:35:00,32.4,1.3,27.17,NE,38,0.0,0.0,26,0.00,,,0.00,VWS V14.00,2013-03-26 08:35:00,
2013-03-26 02:36:00,32.5,1.5,27.17,NE,38,0.0,0.0,26,0.00,,,0.00,VWS V14.00,2013-03-26 08:36:00,
2013-03-26 02:37:00,32.5,1.5,27.17,NE,38,0.0,0.0,26,0.00,,,0.00,VWS V14.00,2013-03-26 08:37:00,
2013-03-26 02:40:00,32.4,1.3,27.17,NE,38,0.0,0.0,26,0.00,,,0.00,VWS V14.00,2013-03-26 08:40:00,
2013-03-26 02:43:00,31.8,0.0,27.17,NE,38,0.0,0.0,25,0.00,,,0.00,VWS V14.00,2013-03-26 08:43:00,
2013-03-26 02:45:00,31.6,-0.1,27.17,NE,38,0.0,0.0,25,0.00,,,0.00,VWS V14.00,2013-03-26 08:45:00,
2013-03-26 02:46:00,31.5,0.5,27.17,NE,38,0.0,0.0,26,0.00,,,0.00,VWS V14.00,2013-03-26 08:46:00,
2013-03-26 02:48:00,31.1,0.2,27.17,NE,38,0.0,0.0,26,0.00,,,0.00,VWS V14.00,2013-03-26 08:48:00,
2013-03-26 02:52:00,30.7,-0.1,27.17,NE,38,0.0,0.0,26,0.00,,,0.00,VWS V14.00,2013-03-26 08:52:00,
2013-03-26 02:54:00,30.6,-0.2,27.17,NE,38,0.0,0.0,26,0.00,,,0.00,VWS V14.00,2013-03-26 08:54:00,
2013-03-26 02:55:00,30.4,-0.4,27.17,NE,38,0.0,0.0,26,0.00,,,0.00,VWS V14.00,2013-03-26 08:55:00,
2013-03-26 02:57:00,30.7,-0.1,27.17,NE,38,0.0,0.0,26,0.00,,,0.00,VWS V14.00,2013-03-26 08:57:00,
2013-03-26 03:00:00,30.6,-0.2,27.17,NE,38,0.0,0.0,26,0.00,,,0.00,VWS V14.00,2013-03-26 09:00:00,
2013-03-26 03:01:00,30.4,-0.4,27.17,NE,38,0.0,0.0,26,0.00,,,0.00,VWS V14.00,2013-03-26 09:01:00,
2013-03-26 03:02:00,30.2,-0.6,27.17,NE,38,0.0,0.0,26,0.00,,,0.00,VWS V14.00,2013-03-26 09:02:00,
2013-03-26 03:05:00,29.5,-1.2,27.17,NE,38,0.0,0.0,26,0.00,,,0.00,VWS V14.00,2013-03-26 09:05:00,
2013-03-26 03:06:00,29.5,-1.2,27.17,NE,38,0.0,0.0,26,0.00,,,0.00,VWS V14.00,2013-03-26 09:06:00,
2013-03-26 03:08:00,29.3,-1.3,27.17,NE,38,0.0,0.0,26,0.00,,,0.00,VWS V14.00,2013-03-26 09:08:00,
2013-03-26 03:10:00,28.9,-1.6,27.17,NE,38,0.0,0.0,26,0.00,,,0.00,VWS V14.00,2013-03-26 09:10:00,
2013-03-26 03:13:00,28.9,-1.6,27.17,NE,38,0.0,0.0,26,0.00,,,0.00,VWS V14.00,2013-03-26 09:13:00,
2013-03-26 03:14:00,28.9,-1.6,27.17,NE,38,0.0,0.0,26,0.00,,,0.00,VWS V14.00,2013-03-26 09:14:00,
2013-03-26 03:16:00,28.8,-1.8,27.17,NE,38,0.0,0.0,26,0.00,,,0.00,VWS V14.00,2013-03-26 09:16:00,
2013-03-26 03:18:00,28.9,-1.6,27.14,NE,38,0.0,0.0,26,0.00,,,0.00,VWS V14.00,2013-03-26 09:18:00,
2013-03-26 03:19:00,28.9,-1.6,27.14,NE,38,0.0,0.0,26,0.00,,,0.00,VWS V14.00,2013-03-26 09:19:00,
2013-03-26 03:24:00,29.1,-1.5,27.14,NE,38,0.0,0.0,26,0.00,,,0.00,VWS V14.00,2013-03-26 09:24:00,
2013-03-26 03:25:00,29.1,-1.5,27.14,NE,38,0.0,0.0,26,0.00,,,0.00,VWS V14.00,2013-03-26 09:25:00,
2013-03-26 03:29:00,29.3,-1.3,27.14,NE,38,0.0,0.0,26,0.00,,,0.00,VWS V14.00,2013-03-26 09:29:00,
2013-03-26 03:30:00,29.3,-1.3,27.14,NE,38,0.0,0.0,26,0.00,,,0.00,VWS V14.00,2013-03-26 09:30:00,
2013-03-26 03:31:00,29.5,-1.2,27.14,NE,38,0.0,0.0,26,0.00,,,0.00,VWS V14.00,2013-03-26 09:31:00,
2013-03-26 03:34:00,29.3,-1.3,27.14,NE,38,0.0,0.0,26,0.00,,,0.00,VWS V14.00,2013-03-26 09:34:00,
2013-03-26 03:35:00,29.1,-1.5,27.14,NE,38,0.0,0.0,26,0.00,,,0.00,VWS V14.00,2013-03-26 09:35:00,
2013-03-26 03:36:00,29.1,-1.5,27.14,NE,38,0.0,0.0,26,0.00,,,0.00,VWS V14.00,2013-03-26 09:36:00,
2013-03-26 03:38:00,29.1,-1.5,27.14,NE,38,0.0,0.0,26,0.00,,,0.00,VWS V14.00,2013-03-26 09:38:00,
2013-03-26 03:39:00,29.1,-1.5,27.14,NE,38,0.0,0.0,26,0.00,,,0.00,VWS V14.00,2013-03-26 09:39:00,
2013-03-26 03:40:00,29.1,-1.5,27.14,NE,38,0.0,0.0,26,0.00,,,0.00,VWS V14.00,2013-03-26 09:40:00,
2013-03-26 03:41:00,29.1,-1.5,27.14,NE,38,0.0,0.0,26,0.00,,,0.00,VWS V14.00,2013-03-26 09:41:00,
2013-03-26 03:45:00,29.5,-1.2,27.14,NE,38,0.0,0.0,26,0.00,,,0.00,VWS V14.00,2013-03-26 09:45:00,
2013-03-26 03:46:00,29.5,-1.2,27.14,NE,38,0.0,0.0,26,0.00,,,0.00,VWS V14.00,2013-03-26 09:46:00,
2013-03-26 03:48:00,29.1,-1.5,27.14,NE,38,0.0,0.0,26,0.00,,,0.00,VWS V14.00,2013-03-26 09:48:00,
2013-03-26 03:50:00,28.9,-1.6,27.14,NE,38,0.0,0.0,26,0.00,,,0.00,VWS V14.00,2013-03-26 09:50:00,
2013-03-26 03:51:00,29.1,-1.5,27.14,NE,38,0.0,0.0,26,0.00,,,0.00,VWS V14.00,2013-03-26 09:51:00,
2013-03-26 03:52:00,29.1,-1.5,27.14,NE,38,0.0,0.0,26,0.00,,,0.00,VWS V14.00,2013-03-26 09:52:00,
2013-03-26 03:54:00,28.9,-1.6,27.14,NE,38,0.0,0.0,26,0.00,,,0.00,VWS V14.00,2013-03-26 09:54:00,
2013-03-26 03:55:00,28.6,-1.9,27.14,NE,38,0.0,0.0,26,0.00,,,0.00,VWS V14.00,2013-03-26 09:55:00,
2013-03-26 03:57:00,28.6,-1.9,27.14,NE,38,0.0,0.0,26,0.00,,,0.00,VWS V14.00,2013-03-26 09:57:00,
2013-03-26 04:00:00,28.2,-2.2,27.14,NE,38,0.0,0.0,26,0.00,,,0.00,VWS V14.00,2013-03-26 10:00:00,
2013-03-26 04:02:00,27.9,-2.6,27.14,NE,38,0.0,0.0,26,0.00,,,0.00,VWS V14.00,2013-03-26 10:02:00,
2013-03-26 04:03:00,28.0,-2.4,27.14,NE,38,0.0,0.0,26,0.00,,,0.00,VWS V14.00,2013-03-26 10:03:00,
2013-03-26 04:05:00,27.9,-2.6,27.14,NE,38,0.0,0.0,26,0.00,,,0.00,VWS V14.00,2013-03-26 10:05:00,
2013-03-26 04:07:00,27.9,-2.6,27.14,NE,38,0.0,0.0,26,0.00,,,0.00,VWS V14.00,2013-03-26 10:07:00,
2013-03-26 04:08:00,27.9,-2.6,27.14,NE,38,0.0,0.0,26,0.00,,,0.00,VWS V14.00,2013-03-26 10:08:00,
2013-03-26 04:10:00,27.9,-2.6,27.14,NE,38,0.0,0.0,26,0.00,,,0.00,VWS V14.00,2013-03-26 10:10:00,
2013-03-26 04:12:00,27.9,-2.6,27.14,NE,38,0.0,0.0,26,0.00,,,0.00,VWS V14.00,2013-03-26 10:12:00,
2013-03-26 04:14:00,27.9,-2.6,27.14,NE,38,0.0,0.0,26,0.00,,,0.00,VWS V14.00,2013-03-26 10:14:00,
2013-03-26 04:16:00,27.9,-2.6,27.14,NE,38,0.0,0.0,26,0.00,,,0.00,VWS V14.00,2013-03-26 10:16:00,
2013-03-26 04:18:00,27.9,-2.6,27.14,NE,38,0.0,0.0,26,0.00,,,0.00,VWS V14.00,2013-03-26 10:18:00,
2013-03-26 04:19:00,27.9,-2.6,27.11,NE,38,0.0,0.0,26,0.00,,,0.00,VWS V14.00,2013-03-26 10:19:00,
2013-03-26 04:20:00,27.9,-2.6,27.11,NE,38,0.0,0.0,26,0.00,,,0.00,VWS V14.00,2013-03-26 10:20:00,
2013-03-26 04:23:00,27.9,-1.8,27.11,NE,38,0.0,0.0,27,0.00,,,0.00,VWS V14.00,2013-03-26 10:23:00,
2013-03-26 04:24:00,27.7,-2.7,27.11,NE,38,0.0,0.0,26,0.00,,,0.00,VWS V14.00,2013-03-26 10:24:00,
2013-03-26 04:25:00,27.5,-2.9,27.11,NE,38,0.0,0.0,26,0.00,,,0.00,VWS V14.00,2013-03-26 10:25:00,
2013-03-26 04:28:00,27.5,-2.9,27.11,NE,38,0.0,0.0,26,0.00,,,0.00,VWS V14.00,2013-03-26 10:28:00,
2013-03-26 04:29:00,27.5,-2.9,27.11,NE,38,0.0,0.0,26,0.00,,,0.00,VWS V14.00,2013-03-26 10:29:00,
2013-03-26 04:30:00,27.5,-2.9,27.11,NE,38,0.0,0.0,26,0.00,,,0.00,VWS V14.00,2013-03-26 10:30:00,
2013-03-26 04:33:00,27.1,-2.4,27.11,NE,38,0.0,0.0,27,0.00,,,0.00,VWS V14.00,2013-03-26 10:33:00,
2013-03-26 04:34:00,27.1,-2.4,27.11,NE,38,0.0,0.0,27,0.00,,,0.00,VWS V14.00,2013-03-26 10:34:00,
2013-03-26 04:35:00,26.8,-2.7,27.11,NE,38,0.0,0.0,27,0.00,,,0.00,VWS V14.00,2013-03-26 10:35:00,
2013-03-26 04:36:00,26.8,-2.7,27.11,NE,38,0.0,0.0,27,0.00,,,0.00,VWS V14.00,2013-03-26 10:36:00,
2013-03-26 04:39:00,26.4,-3.0,27.11,NE,38,0.0,0.0,27,0.00,,,0.00,VWS V14.00,2013-03-26 10:39:00,
2013-03-26 04:40:00,26.2,-3.2,27.11,NE,38,0.0,0.0,27,0.00,,,0.00,VWS V14.00,2013-03-26 10:40:00,
2013-03-26 04:41:00,26.2,-3.2,27.11,NE,38,0.0,0.0,27,0.00,,,0.00,VWS V14.00,2013-03-26 10:41:00,
2013-03-26 04:44:00,26.6,-2.9,27.11,NE,38,0.0,0.0,27,0.00,,,0.00,VWS V14.00,2013-03-26 10:44:00,
2013-03-26 04:45:00,26.6,-2.9,27.11,NE,38,0.0,0.0,27,0.00,,,0.00,VWS V14.00,2013-03-26 10:45:00,
2013-03-26 04:47:00,26.8,-2.7,27.11,NE,38,0.0,0.0,27,0.00,,,0.00,VWS V14.00,2013-03-26 10:47:00,
2013-03-26 04:50:00,27.0,-2.5,27.11,NE,38,0.0,0.0,27,0.00,,,0.00,VWS V14.00,2013-03-26 10:50:00,
2013-03-26 04:52:00,27.0,-2.5,27.11,NE,38,0.0,0.0,27,0.00,,,0.00,VWS V14.00,2013-03-26 10:52:00,
2013-03-26 04:53:00,27.0,-2.5,27.11,NE,38,0.0,0.0,27,0.00,,,0.00,VWS V14.00,2013-03-26 10:53:00,
2013-03-26 04:55:00,27.0,-2.5,27.11,NE,38,0.0,0.0,27,0.00,,,0.00,VWS V14.00,2013-03-26 10:55:00,
2013-03-26 04:56:00,27.0,-2.5,27.11,NE,38,0.0,0.0,27,0.00,,,0.00,VWS V14.00,2013-03-26 10:56:00,
2013-03-26 04:59:00,27.0,-2.5,27.11,NE,38,0.0,0.0,27,0.00,,,0.00,VWS V14.00,2013-03-26 10:59:00,
2013-03-26 05:02:00,26.8,-2.7,27.11,NE,38,0.0,0.0,27,0.00,,,0.00,VWS V14.00,2013-03-26 11:02:00,
2013-03-26 05:03:00,26.6,-2.9,27.11,NE,38,0.0,0.0,27,0.00,,,0.00,VWS V14.00,2013-03-26 11:03:00,
2013-03-26 05:04:00,26.4,-3.0,27.11,NE,38,0.0,0.0,27,0.00,,,0.00,VWS V14.00,2013-03-26 11:04:00,
2013-03-26 05:05:00,26.4,-3.0,27.11,NE,38,0.0,0.0,27,0.00,,,0.00,VWS V14.00,2013-03-26 11:05:00,
2013-03-26 05:07:00,26.1,-3.3,27.11,NE,38,0.0,0.0,27,0.00,,,0.00,VWS V14.00,2013-03-26 11:07:00,
2013-03-26 05:09:00,25.9,-3.5,27.11,NE,38,0.0,0.0,27,0.00,,,0.00,VWS V14.00,2013-03-26 11:09:00,
2013-03-26 05:10:00,25.9,-3.5,27.11,NE,38,0.0,0.0,27,0.00,,,0.00,VWS V14.00,2013-03-26 11:10:00,
2013-03-26 05:14:00,25.7,-3.6,27.11,NE,38,0.0,0.0,27,0.00,,,0.00,VWS V14.00,2013-03-26 11:14:00,
2013-03-26 05:15:00,25.9,-3.5,27.11,NE,38,0.0,0.0,27,0.00,,,0.00,VWS V14.00,2013-03-26 11:15:00,
2013-03-26 05:20:00,26.4,-2.3,27.11,NE,38,0.0,0.0,28,0.00,,,0.00,VWS V14.00,2013-03-26 11:20:00,
2013-03-26 05:21:00,26.4,-2.3,27.11,NE,38,0.0,0.0,28,0.00,,,0.00,VWS V14.00,2013-03-26 11:21:00,
2013-03-26 05:25:00,25.9,-3.5,27.11,NE,38,0.0,0.0,27,0.00,,,0.00,VWS V14.00,2013-03-26 11:25:00,
2013-03-26 05:26:00,25.7,-2.9,27.11,NE,38,0.0,0.0,28,0.00,,,0.00,VWS V14.00,2013-03-26 11:26:00,
2013-03-26 05:27:00,25.7,-2.9,27.11,NE,38,0.0,0.0,28,0.00,,,0.00,VWS V14.00,2013-03-26 11:27:00,
2013-03-26 05:31:00,26.1,-2.6,27.11,NE,38,0.0,0.0,28,0.00,,,0.00,VWS V14.00,2013-03-26 11:31:00,
2013-03-26 05:32:00,26.1,-2.6,27.11,NE,38,0.0,0.0,28,0.00,,,0.00,VWS V14.00,2013-03-26 11:32:00,
2013-03-26 05:34:00,26.1,-2.6,27.11,NE,38,0.0,0.0,28,0.00,,,0.00,VWS V14.00,2013-03-26 11:34:00,
2013-03-26 05:37:00,25.5,-3.0,27.11,NE,38,0.0,0.0,28,0.00,,,0.00,VWS V14.00,2013-03-26 11:37:00,
2013-03-26 05:38:00,25.5,-3.0,27.11,NE,38,0.0,0.0,28,0.00,,,0.00,VWS V14.00,2013-03-26 11:38:00,
2013-03-26 05:39:00,25.3,-3.2,27.11,NE,38,0.0,0.0,28,0.00,,,0.00,VWS V14.00,2013-03-26 11:39:00,
2013-03-26 05:40:00,25.2,-3.3,27.11,NE,38,0.0,0.0,28,0.00,,,0.00,VWS V14.00,2013-03-26 11:40:00,
2013-03-26 05:43:00,25.5,-3.0,27.11,NE,38,0.0,0.0,28,0.00,,,0.00,VWS V14.00,2013-03-26 11:43:00,
2013-03-26 05:44:00,25.5,-3.0,27.11,NE,38,0.0,0.0,28,0.00,,,0.00,VWS V14.00,2013-03-26 11:44:00,
2013-03-26 05:45:00,25.5,-3.0,27.11,NE,38,0.0,0.0,28,0.00,,,0.00,VWS V14.00,2013-03-26 11:45:00,
2013-03-26 05:48:00,25.7,-2.9,27.11,NE,38,0.0,0.0,28,0.00,,,0.00,VWS V14.00,2013-03-26 11:48:00,
2013-03-26 05:49:00,25.9,-2.7,27.11,NE,38,0.0,0.0,28,0.00,,,0.00,VWS V14.00,2013-03-26 11:49:00,
2013-03-26 05:51:00,25.7,-2.9,27.11,NE,38,0.0,0.0,28,0.00,,,0.00,VWS V14.00,2013-03-26 11:51:00,
2013-03-26 05:52:00,25.9,-2.7,27.11,NE,38,0.0,0.0,28,0.00,,,0.00,VWS V14.00,2013-03-26 11:52:00,
2013-03-26 05:53:00,25.9,-2.7,27.11,NE,38,0.0,0.0,28,0.00,,,0.00,VWS V14.00,2013-03-26 11:53:00,
2013-03-26 05:55:00,25.9,-2.7,27.11,NE,38,0.0,0.0,28,0.00,,,0.00,VWS V14.00,2013-03-26 11:55:00,
2013-03-26 05:56:00,25.7,-2.9,27.11,NE,38,0.0,0.0,28,0.00,,,0.00,VWS V14.00,2013-03-26 11:56:00,
2013-03-26 05:58:00,25.5,-3.0,27.11,NE,38,0.0,0.0,28,0.00,,,0.00,VWS V14.00,2013-03-26 11:58:00,
2013-03-26 05:59:00,25.3,-3.2,27.11,NE,38,0.0,0.0,28,0.00,,,0.00,VWS V14.00,2013-03-26 11:59:00,
2013-03-26 06:00:00,25.2,-3.3,27.11,NE,38,0.0,0.0,28,0.00,,,0.00,VWS V14.00,2013-03-26 12:00:00,
2013-03-26 06:03:00,25.3,-3.2,27.11,NE,38,0.0,0.0,28,0.00,,,0.00,VWS V14.00,2013-03-26 12:03:00,
2013-03-26 06:04:00,25.3,-3.2,27.08,NE,38,0.0,0.0,28,0.00,,,0.00,VWS V14.00,2013-03-26 12:04:00,
2013-03-26 06:05:00,25.3,-3.2,27.08,NE,38,0.0,0.0,28,0.00,,,0.00,VWS V14.00,2013-03-26 12:05:00,
2013-03-26 06:08:00,25.3,-3.2,27.08,NE,38,0.0,0.0,28,0.00,,,0.00,VWS V14.00,2013-03-26 12:08:00,
2013-03-26 06:09:00,25.3,-3.2,27.08,NE,38,0.0,0.0,28,0.00,,,0.00,VWS V14.00,2013-03-26 12:09:00,
2013-03-26 06:11:00,25.2,-3.3,27.08,NE,38,0.0,0.0,28,0.00,,,0.00,VWS V14.00,2013-03-26 12:11:00,
2013-03-26 06:12:00,25.2,-3.3,27.08,NE,38,0.0,0.0,28,0.00,,,0.00,VWS V14.00,2013-03-26 12:12:00,
2013-03-26 06:14:00,25.2,-3.3,27.08,NE,38,0.0,0.0,28,0.00,,,0.00,VWS V14.00,2013-03-26 12:14:00,
2013-03-26 06:15:00,25.3,-3.2,27.08,NE,38,0.0,0.0,28,0.00,,,0.00,VWS V14.00,2013-03-26 12:15:00,
2013-03-26 06:17:00,25.3,-3.2,27.08,NE,38,0.0,0.0,28,0.00,,,0.00,VWS V14.00,2013-03-26 12:17:00,
2013-03-26 06:19:00,25.2,-3.3,27.08,NE,38,0.0,0.0,28,0.00,,,0.00,VWS V14.00,2013-03-26 12:19:00,
2013-03-26 06:20:00,25.0,-3.5,27.08,NE,38,0.0,0.0,28,0.00,,,0.00,VWS V14.00,2013-03-26 12:20:00,
2013-03-26 06:22:00,25.0,-3.5,27.08,NE,38,0.0,0.0,28,0.00,,,0.00,VWS V14.00,2013-03-26 12:22:00,
2013-03-26 06:23:00,25.2,-3.3,27.08,NE,38,0.0,0.0,28,0.00,,,0.00,VWS V14.00,2013-03-26 12:23:00,
2013-03-26 06:24:00,25.3,-3.2,27.08,NE,38,0.0,0.0,28,0.00,,,0.00,VWS V14.00,2013-03-26 12:24:00,
2013-03-26 06:26:00,25.2,-3.3,27.08,NE,38,0.0,0.0,28,0.00,,,0.00,VWS V14.00,2013-03-26 12:26:00,
2013-03-26 06:27:00,25.2,-3.3,27.08,NE,38,0.0,0.0,28,0.00,,,0.00,VWS V14.00,2013-03-26 12:27:00,
2013-03-26 06:28:00,25.0,-3.5,27.08,NE,38,0.0,0.0,28,0.00,,,0.00,VWS V14.00,2013-03-26 12:28:00,
2013-03-26 06:30:00,24.8,-3.7,27.08,NE,38,0.0,0.0,28,0.00,,,0.00,VWS V14.00,2013-03-26 12:30:00,
2013-03-26 06:32:00,24.8,-3.7,27.08,NE,38,0.0,0.0,28,0.00,,,0.00,VWS V14.00,2013-03-26 12:32:00,
2013-03-26 06:33:00,24.8,-3.7,27.08,NE,38,0.0,0.0,28,0.00,,,0.00,VWS V14.00,2013-03-26 12:33:00,
2013-03-26 06:34:00,24.8,-3.7,27.08,NE,38,0.0,0.0,28,0.00,,,0.00,VWS V14.00,2013-03-26 12:34:00,
2013-03-26 06:35:00,24.8,-3.7,27.08,NE,38,0.0,0.0,28,0.00,,,0.00,VWS V14.00,2013-03-26 12:35:00,
2013-03-26 06:38:00,24.8,-3.7,27.08,NE,38,0.0,0.0,28,0.00,,,0.00,VWS V14.00,2013-03-26 12:38:00,
2013-03-26 06:39:00,25.0,-3.5,27.08,NE,38,0.0,0.0,28,0.00,,,0.00,VWS V14.00,2013-03-26 12:39:00,
2013-03-26 06:41:00,25.3,-2.5,27.08,NE,38,0.0,0.0,29,0.00,,,0.00,VWS V14.00,2013-03-26 12:41:00,
2013-03-26 06:44:00,25.5,-2.3,27.08,NE,38,0.0,0.0,29,0.00,,,0.00,VWS V14.00,2013-03-26 12:44:00,
2013-03-26 06:45:00,25.5,-2.3,27.08,NE,38,0.0,0.0,29,0.00,,,0.00,VWS V14.00,2013-03-26 12:45:00,
2013-03-26 06:47:00,25.7,-2.2,27.08,NE,38,0.0,0.0,29,0.00,,,0.00,VWS V14.00,2013-03-26 12:47:00,
2013-03-26 06:49:00,25.7,-2.2,27.08,NE,38,0.0,0.0,29,0.00,,,0.00,VWS V14.00,2013-03-26 12:49:00,
2013-03-26 06:50:00,25.7,-2.2,27.08,NE,38,0.0,0.0,29,0.00,,,0.00,VWS V14.00,2013-03-26 12:50:00,
2013-03-26 06:53:00,25.7,-2.2,27.08,NE,38,0.0,0.0,29,0.00,,,0.00,VWS V14.00,2013-03-26 12:53:00,
2013-03-26 06:55:00,25.9,-2.0,27.08,NE,38,0.0,0.0,29,0.00,,,0.00,VWS V14.00,2013-03-26 12:55:00,
2013-03-26 06:56:00,25.9,-2.0,27.08,NE,38,0.0,0.0,29,0.00,,,0.00,VWS V14.00,2013-03-26 12:56:00,
2013-03-26 06:58:00,26.1,-1.8,27.08,NE,38,0.0,0.0,29,0.00,,,0.00,VWS V14.00,2013-03-26 12:58:00,
2013-03-26 07:01:00,26.1,-1.8,27.08,NE,38,0.0,0.0,29,0.00,,,0.00,VWS V14.00,2013-03-26 13:01:00,
2013-03-26 07:02:00,26.1,-1.8,27.08,NE,38,0.0,0.0,29,0.00,,,0.00,VWS V14.00,2013-03-26 13:02:00,
2013-03-26 07:03:00,26.1,-1.8,27.08,NE,38,0.0,0.0,29,0.00,,,0.00,VWS V14.00,2013-03-26 13:03:00,
2013-03-26 07:07:00,26.6,-0.6,27.08,NE,38,0.0,0.0,30,0.00,,,0.00,VWS V14.00,2013-03-26 13:07:00,
2013-03-26 07:08:00,26.8,-0.5,27.08,NE,38,0.0,0.0,30,0.00,,,0.00,VWS V14.00,2013-03-26 13:08:00,
2013-03-26 07:12:00,27.9,-0.3,27.08,NE,38,0.0,0.0,29,0.00,,,0.00,VWS V14.00,2013-03-26 13:12:00,
2013-03-26 07:13:00,28.0,-0.9,27.08,NE,38,0.0,0.0,28,0.00,,,0.00,VWS V14.00,2013-03-26 13:13:00,
2013-03-26 07:14:00,28.4,-0.5,27.08,NE,38,0.0,0.0,28,0.00,,,0.00,VWS V14.00,2013-03-26 13:14:00,
2013-03-26 07:17:00,28.9,-0.8,27.08,NE,38,0.0,0.0,27,0.00,,,0.00,VWS V14.00,2013-03-26 13:17:00,
2013-03-26 07:19:00,29.5,-0.4,27.08,NE,38,0.0,0.0,27,0.00,,,0.00,VWS V14.00,2013-03-26 13:19:00,
2013-03-26 07:20:00,29.5,-0.4,27.08,NE,38,0.0,0.0,27,0.00,,,0.00,VWS V14.00,2013-03-26 13:20:00,
2013-03-26 07:22:00,30.0,-0.7,27.08,NE,38,0.0,0.0,26,0.00,,,0.00,VWS V14.00,2013-03-26 13:22:00,
2013-03-26 07:23:00,30.0,-0.7,27.08,NE,38,0.0,0.0,26,0.00,,,0.00,VWS V14.00,2013-03-26 13:23:00,
2013-03-26 07:25:00,30.4,-0.4,27.08,NE,38,0.0,0.0,26,0.00,,,0.00,VWS V14.00,2013-03-26 13:25:00,
2013-03-26 07:26:00,30.6,-0.2,27.08,NE,38,0.0,0.0,26,0.00,,,0.00,VWS V14.00,2013-03-26 13:26:00,
2013-03-26 07:28:00,30.9,0.1,27.08,NE,38,0.0,0.0,26,0.00,,,0.00,VWS V14.00,2013-03-26 13:28:00,
2013-03-26 07:30:00,31.1,0.2,27.08,NE,38,0.0,0.0,26,0.00,,,0.00,VWS V14.00,2013-03-26 13:30:00,
2013-03-26 07:31:00,31.6,0.7,27.08,NE,38,0.0,0.0,26,0.00,,,0.00,VWS V14.00,2013-03-26 13:31:00,
2013-03-26 07:33:00,32.2,1.2,27.08,NE,38,0.0,0.0,26,0.00,,,0.00,VWS V14.00,2013-03-26 13:33:00,
2013-03-26 07:34:00,32.4,1.3,27.08,NE,38,0.0,0.0,26,0.00,,,0.00,VWS V14.00,2013-03-26 13:34:00,
2013-03-26 07:35:00,32.5,1.5,27.08,NE,38,0.0,0.0,26,0.00,,,0.00,VWS V14.00,2013-03-26 13:35:00,
2013-03-26 07:37:00,32.9,1.8,27.08,NE,38,0.0,0.0,26,0.00,,,0.00,VWS V14.00,2013-03-26 13:37:00,
2013-03-26 07:39:00,33.4,2.2,27.08,NE,38,0.0,0.0,26,0.00,,,0.00,VWS V14.00,2013-03-26 13:39:00,
2013-03-26 07:40:00,33.4,2.2,27.08,NE,38,0.0,0.0,26,0.00,,,0.00,VWS V14.00,2013-03-26 13:40:00,
2013-03-26 07:43:00,34.5,2.3,27.08,NE,38,0.0,0.0,25,0.00,,,0.00,VWS V14.00,2013-03-26 13:43:00,
2013-03-26 07:45:00,36.3,3.9,27.08,NE,38,0.0,0.0,25,0.00,,,0.00,VWS V14.00,2013-03-26 13:45:00,
2013-03-26 07:48:00,37.0,4.5,27.08,NE,38,0.0,0.0,25,0.00,,,0.00,VWS V14.00,2013-03-26 13:48:00,
2013-03-26 07:50:00,38.1,4.5,27.08,NE,38,0.0,0.0,24,0.00,,,0.00,VWS V14.00,2013-03-26 13:50:00,
2013-03-26 07:51:00,38.1,4.5,27.08,NE,38,0.0,0.0,24,0.00,,,0.00,VWS V14.00,2013-03-26 13:51:00,
2013-03-26 07:53:00,38.1,4.5,27.08,NE,38,0.0,0.0,24,0.00,,,0.00,VWS V14.00,2013-03-26 13:53:00,
2013-03-26 07:54:00,38.1,4.5,27.08,NE,38,0.0,0.0,24,0.00,,,0.00,VWS V14.00,2013-03-26 13:54:00,
2013-03-26 07:56:00,38.1,4.5,27.08,NE,38,0.0,0.0,24,0.00,,,0.00,VWS V14.00,2013-03-26 13:56:00,
2013-03-26 07:59:00,38.1,4.5,27.08,NE,38,0.0,0.0,24,0.00,,,0.00,VWS V14.00,2013-03-26 13:59:00,
2013-03-26 08:01:00,38.1,4.5,27.08,NE,38,0.0,0.0,24,0.00,,,0.00,VWS V14.00,2013-03-26 14:01:00,
2013-03-26 08:03:00,38.1,4.5,27.08,NE,38,0.0,0.0,24,0.00,,,0.00,VWS V14.00,2013-03-26 14:03:00,
2013-03-26 08:04:00,38.3,4.7,27.08,NE,38,0.0,0.0,24,0.00,,,0.00,VWS V14.00,2013-03-26 14:04:00,
2013-03-26 08:06:00,38.7,5.0,27.08,NE,38,0.0,0.0,24,0.00,,,0.00,VWS V14.00,2013-03-26 14:06:00,
2013-03-26 08:07:00,38.7,5.0,27.08,NE,38,0.0,0.0,24,0.00,,,0.00,VWS V14.00,2013-03-26 14:07:00,
2013-03-26 08:08:00,38.8,5.2,27.08,NE,38,0.0,0.0,24,0.00,,,0.00,VWS V14.00,2013-03-26 14:08:00,
2013-03-26 08:09:00,39.0,5.3,27.08,NE,38,0.0,0.0,24,0.00,,,0.00,VWS V14.00,2013-03-26 14:09:00,
2013-03-26 08:12:00,39.6,5.8,27.08,NE,38,0.0,0.0,24,0.00,,,0.00,VWS V14.00,2013-03-26 14:12:00,
2013-03-26 08:13:00,39.7,5.9,27.08,NE,38,0.0,0.0,24,0.00,,,0.00,VWS V14.00,2013-03-26 14:13:00,
2013-03-26 08:15:00,40.6,6.7,27.08,NE,38,0.0,0.0,24,0.00,,,0.00,VWS V14.00,2013-03-26 14:15:00,
2013-03-26 08:17:00,41.5,6.5,27.08,NE,38,0.0,0.0,23,0.00,,,0.00,VWS V14.00,2013-03-26 14:17:00,
2013-03-26 08:18:00,41.5,6.5,27.08,NE,38,0.0,0.0,23,0.00,,,0.00,VWS V14.00,2013-03-26 14:18:00,
2013-03-26 08:20:00,41.9,6.8,27.08,NE,38,0.0,0.0,23,0.00,,,0.00,VWS V14.00,2013-03-26 14:20:00,
2013-03-26 08:21:00,42.3,7.1,27.08,NE,38,3.6,3.6,23,0.00,,,0.00,VWS V14.00,2013-03-26 14:21:00,
2013-03-26 08:22:00,42.4,7.3,27.08,NE,38,0.0,3.6,23,0.00,,,0.00,VWS V14.00,2013-03-26 14:22:00,
2013-03-26 08:24:00,42.6,7.4,27.08,NE,38,3.1,3.6,23,0.00,,,0.00,VWS V14.00,2013-03-26 14:24:00,
2013-03-26 08:25:00,42.8,7.6,27.08,NE,38,2.2,3.6,23,0.00,,,0.00,VWS V14.00,2013-03-26 14:25:00,
2013-03-26 08:27:00,44.2,8.8,27.08,NE,38,4.9,4.9,23,0.00,,,0.00,VWS V14.00,2013-03-26 14:27:00,
2013-03-26 08:28:00,44.2,8.8,27.08,NE,38,3.6,4.9,23,0.00,,,0.00,VWS V14.00,2013-03-26 14:28:00,
2013-03-26 08:29:00,44.8,9.3,27.08,NE,38,3.6,3.6,23,0.00,,,0.00,VWS V14.00,2013-03-26 14:29:00,
2013-03-26 08:30:00,44.8,9.3,27.08,NE,38,2.7,4.0,23,0.00,,,0.00,VWS V14.00,2013-03-26 14:30:00,
2013-03-26 08:33:00,47.5,10.6,27.08,NE,38,0.0,4.0,22,0.00,,,0.00,VWS V14.00,2013-03-26 14:33:00,
2013-03-26 08:35:00,48.2,11.1,27.08,NE,38,0.0,4.0,22,0.00,,,0.00,VWS V14.00,2013-03-26 14:35:00,
2013-03-26 08:37:00,48.2,11.1,27.08,NE,38,0.0,4.0,22,0.00,,,0.00,VWS V14.00,2013-03-26 14:37:00,
2013-03-26 08:38:00,48.6,11.5,27.08,NE,38,0.0,4.0,22,0.00,,,0.00,VWS V14.00,2013-03-26 14:38:00,
2013-03-26 08:39:00,48.6,11.5,27.08,NE,38,3.6,4.0,22,0.00,,,0.00,VWS V14.00,2013-03-26 14:39:00,
2013-03-26 08:40:00,48.6,11.5,27.08,NE,38,3.6,4.0,22,0.00,,,0.00,VWS V14.00,2013-03-26 14:40:00,
2013-03-26 08:43:00,48.4,11.3,27.08,NE,39,2.7,2.7,22,0.00,,,0.00,VWS V14.00,2013-03-26 14:43:00,
2013-03-26 08:44:00,48.0,11.0,27.08,South,180,5.4,7.2,22,0.00,,,0.00,VWS V14.00,2013-03-26 14:44:00,
2013-03-26 08:46:00,49.3,12.1,27.08,South,187,3.6,7.2,22,0.00,,,0.00,VWS V14.00,2013-03-26 14:46:00,
2013-03-26 08:48:00,49.1,11.9,27.08,SSW,211,5.4,7.2,22,0.00,,,0.00,VWS V14.00,2013-03-26 14:48:00,
2013-03-26 08:49:00,49.1,11.9,27.08,SSW,208,5.4,7.2,22,0.00,,,0.00,VWS V14.00,2013-03-26 14:49:00,
2013-03-26 08:50:00,48.9,11.8,27.08,South,187,4.0,7.2,22,0.00,,,0.00,VWS V14.00,2013-03-26 14:50:00,
2013-03-26 08:52:00,49.5,12.2,27.08,South,188,5.4,7.2,22,0.00,,,0.00,VWS V14.00,2013-03-26 14:52:00,
2013-03-26 08:53:00,50.5,12.1,27.08,SSW,205,5.4,7.2,21,0.00,,,0.00,VWS V14.00,2013-03-26 14:53:00,
2013-03-26 08:55:00,52.0,13.3,27.08,SSW,201,2.7,7.2,21,0.00,,,0.00,VWS V14.00,2013-03-26 14:55:00,
2013-03-26 08:58:00,53.1,14.2,27.08,South,180,5.8,5.8,21,0.00,,,0.00,VWS V14.00,2013-03-26 14:58:00,
2013-03-26 09:01:00,52.0,13.3,27.08,South,179,4.9,8.1,21,0.00,,,0.00,VWS V14.00,2013-03-26 15:01:00,
2013-03-26 09:02:00,53.1,14.2,27.08,South,185,6.3,8.1,21,0.00,,,0.00,VWS V14.00,2013-03-26 15:02:00,
2013-03-26 09:04:00,58.8,17.9,27.08,SSE,167,3.6,8.1,20,0.00,,,0.00,VWS V14.00,2013-03-26 15:04:00,
2013-03-26 09:07:00,57.0,16.4,27.08,South,190,3.6,8.1,20,0.00,,,0.00,VWS V14.00,2013-03-26 15:07:00,
2013-03-26 09:10:00,53.1,14.2,27.08,SW,219,6.3,8.1,21,0.00,,,0.00,VWS V14.00,2013-03-26 15:10:00,
2013-03-26 09:12:00,52.5,13.7,27.08,South,191,7.6,8.1,21,0.00,,,0.00,VWS V14.00,2013-03-26 15:12:00,
2013-03-26 09:13:00,53.6,14.6,27.08,SSW,211,7.6,8.1,21,0.00,,,0.00,VWS V14.00,2013-03-26 15:13:00,
2013-03-26 09:15:00,54.9,15.7,27.08,SSW,208,8.3,8.3,21,0.00,,,0.00,VWS V14.00,2013-03-26 15:15:00,
2013-03-26 09:17:00,54.5,15.4,27.08,South,177,5.4,8.3,21,0.00,,,0.00,VWS V14.00,2013-03-26 15:17:00,
2013-03-26 09:18:00,54.5,15.4,27.08,SSW,211,5.8,8.3,21,0.00,,,0.00,VWS V14.00,2013-03-26 15:18:00,
2013-03-26 09:19:00,55.6,15.2,27.11,South,175,3.1,8.3,20,0.00,,,0.00,VWS V14.00,2013-03-26 15:19:00,
2013-03-26 09:20:00,56.3,15.8,27.11,South,170,6.3,8.3,20,0.00,,,0.00,VWS V14.00,2013-03-26 15:20:00,
2013-03-26 09:22:00,54.9,15.7,27.11,South,183,5.8,8.3,21,0.00,,,0.00,VWS V14.00,2013-03-26 15:22:00,
2013-03-26 09:24:00,56.3,15.8,27.11,SSW,193,4.9,8.3,20,0.00,,,0.00,VWS V14.00,2013-03-26 15:24:00,
2013-03-26 09:26:00,55.9,15.5,27.11,South,180,3.6,8.3,20,0.00,,,0.00,VWS V14.00,2013-03-26 15:26:00,
2013-03-26 09:27:00,60.1,17.7,27.11,South,178,3.1,8.3,19,0.00,,,0.00,VWS V14.00,2013-03-26 15:27:00,
2013-03-26 09:28:00,60.3,17.9,27.11,South,178,0.0,0.0,19,0.00,,,0.00,VWS V14.00,2013-03-26 15:28:00,
2013-03-26 09:29:00,57.2,16.5,27.11,SSW,213,4.0,7.6,20,0.00,,,0.00,VWS V14.00,2013-03-26 15:29:00,
2013-03-26 09:32:00,58.3,17.4,27.11,South,190,3.6,7.6,20,0.00,,,0.00,VWS V14.00,2013-03-26 15:32:00,
2013-03-26 09:33:00,61.0,18.5,27.11,South,185,4.0,7.6,19,0.00,,,0.00,VWS V14.00,2013-03-26 15:33:00,
2013-03-26 09:34:00,59.5,17.3,27.11,South,177,8.1,8.1,19,0.00,,,0.00,VWS V14.00,2013-03-26 15:34:00,
2013-03-26 09:35:00,57.6,16.8,27.11,SSW,199,6.3,8.1,20,0.00,,,0.00,VWS V14.00,2013-03-26 15:35:00,
2013-03-26 09:39:00,58.3,17.4,27.11,SW,220,7.6,8.7,20,0.00,,,0.00,VWS V14.00,2013-03-26 15:39:00,
2013-03-26 09:40:00,57.4,16.7,27.11,SSW,192,6.3,9.2,20,0.00,,,0.00,VWS V14.00,2013-03-26 15:40:00,
2013-03-26 09:44:00,56.1,15.6,27.11,SW,222,6.3,7.6,20,0.00,,,0.00,VWS V14.00,2013-03-26 15:44:00,
2013-03-26 09:45:00,56.1,15.6,27.11,SW,223,8.7,8.7,20,0.00,,,0.00,VWS V14.00,2013-03-26 15:45:00,
2013-03-26 09:46:00,57.9,17.1,27.11,South,182,6.3,8.7,20,0.00,,,0.00,VWS V14.00,2013-03-26 15:46:00,
2013-03-26 09:49:00,55.9,15.5,27.11,South,183,4.0,8.7,20,0.00,,,0.00,VWS V14.00,2013-03-26 15:49:00,
2013-03-26 09:50:00,55.2,16.0,27.11,SSW,196,5.4,8.7,21,0.00,,,0.00,VWS V14.00,2013-03-26 15:50:00,
2013-03-26 09:54:00,62.6,19.8,27.11,SE,127,0.0,8.7,19,0.00,,,0.00,VWS V14.00,2013-03-26 15:54:00,
2013-03-26 09:55:00,63.5,20.5,27.11,South,172,4.0,8.7,19,0.00,,,0.00,VWS V14.00,2013-03-26 15:55:00,
2013-03-26 09:56:00,64.2,21.1,27.11,South,172,2.2,8.7,19,0.00,,,0.00,VWS V14.00,2013-03-26 15:56:00,
2013-03-26 10:00:00,60.8,18.3,27.11,SSW,210,6.3,8.1,19,0.00,,,0.00,VWS V14.00,2013-03-26 16:00:00,
2013-03-26 10:01:00,59.2,17.0,27.11,SW,221,5.8,8.1,19,0.00,,,0.00,VWS V14.00,2013-03-26 16:01:00,
2013-03-26 10:05:00,59.2,17.0,27.11,South,190,8.3,8.7,19,0.00,,,0.00,VWS V14.00,2013-03-26 16:05:00,
2013-03-26 10:06:00,59.2,17.0,27.11,SW,220,6.7,8.7,19,0.00,,,0.00,VWS V14.00,2013-03-26 16:06:00,
2013-03-26 10:09:00,60.8,18.3,27.11,SSW,212,0.0,8.7,19,0.00,,,0.00,VWS V14.00,2013-03-26 16:09:00,
2013-03-26 10:10:00,61.3,18.8,27.11,SW,215,4.0,8.7,19,0.00,,,0.00,VWS V14.00,2013-03-26 16:10:00,
2013-03-26 10:11:00,61.3,18.8,27.11,SW,215,3.6,8.7,19,0.00,,,0.00,VWS V14.00,2013-03-26 16:11:00,
2013-03-26 10:13:00,65.7,21.0,27.11,SSE,168,6.3,6.3,18,0.00,,,0.00,VWS V14.00,2013-03-26 16:13:00,
2013-03-26 10:14:00,64.6,20.1,27.11,South,170,5.4,6.3,18,0.00,,,0.00,VWS V14.00,2013-03-26 16:14:00,
2013-03-26 10:15:00,65.3,20.7,27.11,South,177,3.1,6.3,18,0.00,,,0.00,VWS V14.00,2013-03-26 16:15:00,
2013-03-26 10:16:00,65.3,20.7,27.11,South,177,0.0,6.3,18,0.00,,,0.00,VWS V14.00,2013-03-26 16:16:00,
2013-03-26 10:18:00,65.8,21.2,27.14,WNW,298,4.0,6.3,18,0.00,,,0.00,VWS V14.00,2013-03-26 16:18:00,
2013-03-26 10:19:00,65.5,20.9,27.14,WSW,242,3.6,6.3,18,0.00,,,0.00,VWS V14.00,2013-03-26 16:19:00,
2013-03-26 10:22:00,64.0,21.0,27.14,South,185,8.3,8.3,19,0.00,,,0.00,VWS V14.00,2013-03-26 16:22:00,
2013-03-26 10:23:00,63.0,20.1,27.14,SSW,208,3.1,8.3,19,0.00,,,0.00,VWS V14.00,2013-03-26 16:23:00,
2013-03-26 10:24:00,63.0,20.1,27.14,SSW,211,2.7,8.3,19,0.00,,,0.00,VWS V14.00,2013-03-26 16:24:00,
2013-03-26 10:25:00,59.7,18.6,27.14,SSW,212,8.3,9.6,20,0.00,,,0.00,VWS V14.00,2013-03-26 16:25:00,
2013-03-26 10:27:00,61.2,18.6,27.14,SSW,205,3.6,9.6,19,0.00,,,0.00,VWS V14.00,2013-03-26 16:27:00,
2013-03-26 10:28:00,59.5,18.5,27.14,SSW,207,8.3,8.3,20,0.00,,,0.00,VWS V14.00,2013-03-26 16:28:00,
2013-03-26 10:29:00,58.8,17.9,27.14,SSW,208,6.3,8.3,20,0.00,,,0.00,VWS V14.00,2013-03-26 16:29:00,
2013-03-26 10:30:00,59.9,17.6,27.14,SW,218,8.7,8.7,19,0.00,,,0.00,VWS V14.00,2013-03-26 16:30:00,
2013-03-26 10:33:00,61.9,19.2,27.14,South,183,5.4,8.7,19,0.00,,,0.00,VWS V14.00,2013-03-26 16:33:00,
2013-03-26 10:34:00,64.4,20.0,27.14,South,185,4.0,8.7,18,0.00,,,0.00,VWS V14.00,2013-03-26 16:34:00,
2013-03-26 10:37:00,61.2,18.6,27.14,SSW,197,4.0,8.7,19,0.00,,,0.00,VWS V14.00,2013-03-26 16:37:00,
2013-03-26 10:38:00,63.0,20.1,27.14,South,179,5.4,8.7,19,0.00,,,0.00,VWS V14.00,2013-03-26 16:38:00,
2013-03-26 10:41:00,63.9,20.8,27.14,SSW,194,5.8,8.7,19,0.00,,,0.00,VWS V14.00,2013-03-26 16:41:00,
2013-03-26 10:42:00,63.9,20.8,27.14,SSW,197,6.3,8.7,19,0.00,,,0.00,VWS V14.00,2013-03-26 16:42:00,
2013-03-26 10:45:00,61.5,18.9,27.14,South,189,3.1,6.3,19,0.00,,,0.00,VWS V14.00,2013-03-26 16:45:00,
2013-03-26 10:47:00,66.7,21.9,27.14,SSW,197,3.1,6.3,18,0.00,,,0.00,VWS V14.00,2013-03-26 16:47:00,
2013-03-26 10:48:00,66.9,22.1,27.17,SSW,207,6.3,6.3,18,0.00,,,0.00,VWS V14.00,2013-03-26 16:48:00,
2013-03-26 10:50:00,64.8,20.3,27.17,SSW,197,5.8,7.6,18,0.00,,,0.00,VWS V14.00,2013-03-26 16:50:00,
2013-03-26 10:51:00,64.8,20.3,27.17,South,189,6.3,7.6,18,0.00,,,0.00,VWS V14.00,2013-03-26 16:51:00,
2013-03-26 10:53:00,61.2,18.6,27.17,SW,215,5.4,8.7,19,0.00,,,0.00,VWS V14.00,2013-03-26 16:53:00,
2013-03-26 10:56:00,64.2,21.1,27.17,South,179,0.0,9.6,19,0.00,,,0.00,VWS V14.00,2013-03-26 16:56:00,
2013-03-26 10:59:00,66.2,21.5,27.17,South,180,4.9,8.7,18,0.00,,,0.00,VWS V14.00,2013-03-26 16:59:00,
2013-03-26 11:01:00,66.2,21.5,27.17,South,186,5.4,8.7,18,0.00,,,0.00,VWS V14.00,2013-03-26 17:01:00,
2013-03-26 11:02:00,66.2,21.5,27.17,South,186,4.0,8.7,18,0.00,,,0.00,VWS V14.00,2013-03-26 17:02:00,
2013-03-26 11:04:00,68.7,23.5,27.17,South,181,2.2,8.7,18,0.00,,,0.00,VWS V14.00,2013-03-26 17:04:00,
2013-03-26 11:07:00,68.9,23.7,27.17,South,185,0.0,8.7,18,0.00,,,0.00,VWS V14.00,2013-03-26 17:07:00,
2013-03-26 11:08:00,70.7,23.8,27.17,South,185,2.7,8.7,17,0.00,,,0.00,VWS V14.00,2013-03-26 17:08:00,
2013-03-26 11:10:00,69.3,24.0,27.17,NNE,33,3.1,8.7,18,0.00,,,0.00,VWS V14.00,2013-03-26 17:10:00,
2013-03-26 11:12:00,70.7,23.8,27.17,SSW,197,5.4,8.7,17,0.00,,,0.00,VWS V14.00,2013-03-26 17:12:00,
2013-03-26 11:13:00,71.1,24.1,27.17,South,173,5.8,8.7,17,0.00,,,0.00,VWS V14.00,2013-03-26 17:13:00,
2013-03-26 11:15:00,66.9,22.1,27.17,South,182,4.9,6.3,18,0.00,,,0.00,VWS V14.00,2013-03-26 17:15:00,
2013-03-26 11:18:00,68.2,23.1,27.17,South,169,3.1,6.3,18,0.00,,,0.00,VWS V14.00,2013-03-26 17:18:00,
2013-03-26 11:19:00,69.6,24.3,27.17,ESE,120,2.2,6.3,18,0.00,,,0.00,VWS V14.00,2013-03-26 17:19:00,
2013-03-26 11:23:00,66.0,21.3,27.17,South,187,6.3,8.7,18,0.00,,,0.00,VWS V14.00,2013-03-26 17:23:00,
2013-03-26 11:24:00,61.3,18.8,27.17,SSW,193,8.3,8.7,19,0.00,,,0.00,VWS V14.00,2013-03-26 17:24:00,
2013-03-26 11:25:00,64.6,20.1,27.17,WNW,299,3.1,8.7,18,0.00,,,0.00,VWS V14.00,2013-03-26 17:25:00,
2013-03-26 11:28:00,65.7,21.0,27.17,South,191,8.1,8.7,18,0.00,,,0.00,VWS V14.00,2013-03-26 17:28:00,
2013-03-26 11:29:00,66.4,21.6,27.17,South,171,3.6,8.1,18,0.00,,,0.00,VWS V14.00,2013-03-26 17:29:00,
2013-03-26 11:30:00,66.6,21.8,27.17,SSW,197,4.0,8.1,18,0.00,,,0.00,VWS V14.00,2013-03-26 17:30:00,
2013-03-26 11:33:00,70.0,23.2,27.17,South,172,5.4,8.1,17,0.00,,,0.00,VWS V14.00,2013-03-26 17:33:00,
2013-03-26 11:34:00,69.1,23.8,27.17,South,184,2.7,8.1,18,0.00,,,0.00,VWS V14.00,2013-03-26 17:34:00,
2013-03-26 11:36:00,70.3,23.5,27.17,WNW,300,0.0,8.1,17,0.00,,,0.00,VWS V14.00,2013-03-26 17:36:00,
2013-03-26 11:39:00,67.6,22.6,27.17,SSW,204,0.0,8.1,18,0.00,,,0.00,VWS V14.00,2013-03-26 17:39:00,
2013-03-26 11:40:00,68.9,23.7,27.17,SSW,204,0.0,8.1,18,0.00,,,0.00,VWS V14.00,2013-03-26 17:40:00,
2013-03-26 11:41:00,67.3,22.4,27.17,South,182,10.5,10.5,18,0.00,,,0.00,VWS V14.00,2013-03-26 17:41:00,
2013-03-26 11:45:00,64.2,21.1,27.17,SSW,208,8.3,10.5,19,0.00,,,0.00,VWS V14.00,2013-03-26 17:45:00,
2013-03-26 11:46:00,62.8,19.9,27.17,WNW,285,4.0,10.5,19,0.00,,,0.00,VWS V14.00,2013-03-26 17:46:00,
2013-03-26 11:50:00,61.3,18.8,27.20,South,178,7.6,10.5,19,0.00,,,0.00,VWS V14.00,2013-03-26 17:50:00,
2013-03-26 11:51:00,61.2,18.6,27.20,South,180,6.3,10.5,19,0.00,,,0.00,VWS V14.00,2013-03-26 17:51:00,
2013-03-26 11:52:00,61.9,19.2,27.20,South,182,2.7,10.5,19,0.00,,,0.00,VWS V14.00,2013-03-26 17:52:00,
2013-03-26 11:55:00,67.8,22.8,27.20,SSW,205,3.1,10.5,18,0.00,,,0.00,VWS V14.00,2013-03-26 17:55:00,
2013-03-26 11:57:00,69.1,23.8,27.20,SSW,205,3.1,10.5,18,0.00,,,0.00,VWS V14.00,2013-03-26 17:57:00,
2013-03-26 11:58:00,67.8,22.8,27.20,SSW,209,7.6,7.6,18,0.00,,,0.00,VWS V14.00,2013-03-26 17:58:00,
2013-03-26 12:01:00,68.0,23.0,27.20,South,175,2.7,8.7,18,0.00,,,0.00,VWS V14.00,2013-03-26 18:01:00,
2013-03-26 12:02:00,66.2,21.5,27.20,South,171,4.0,8.7,18,0.00,,,0.00,VWS V14.00,2013-03-26 18:02:00,
2013-03-26 12:04:00,64.9,20.4,27.20,SSW,197,5.8,8.7,18,0.00,,,0.00,VWS V14.00,2013-03-26 18:04:00,
2013-03-26 12:07:00,63.7,20.7,27.20,SW,220,5.8,8.7,19,0.00,,,0.00,VWS V14.00,2013-03-26 18:07:00,
2013-03-26 12:09:00,65.8,21.2,27.20,SW,230,0.0,8.7,18,0.00,,,0.00,VWS V14.00,2013-03-26 18:09:00,
2013-03-26 12:10:00,66.2,21.5,27.20,SW,235,0.0,8.7,18,0.00,,,0.00,VWS V14.00,2013-03-26 18:10:00,
2013-03-26 12:13:00,66.9,22.1,27.20,WNW,303,4.0,8.7,18,0.00,,,0.00,VWS V14.00,2013-03-26 18:13:00,
2013-03-26 12:15:00,66.9,22.1,27.20,South,172,6.3,6.3,18,0.00,,,0.00,VWS V14.00,2013-03-26 18:15:00,
2013-03-26 12:17:00,65.5,20.9,27.20,SSW,212,4.0,8.7,18,0.00,,,0.00,VWS V14.00,2013-03-26 18:17:00,
2013-03-26 12:18:00,65.7,21.0,27.20,SW,217,3.6,8.7,18,0.00,,,0.00,VWS V14.00,2013-03-26 18:18:00,
2013-03-26 12:20:00,63.0,20.1,27.20,SW,217,3.6,8.7,19,0.00,,,0.00,VWS V14.00,2013-03-26 18:20:00,
2013-03-26 12:22:00,63.9,20.8,27.20,SW,234,4.0,8.7,19,0.00,,,0.00,VWS V14.00,2013-03-26 18:22:00,
2013-03-26 12:24:00,63.7,20.7,27.20,South,190,5.8,8.7,19,0.00,,,0.00,VWS V14.00,2013-03-26 18:24:00,
2013-03-26 12:25:00,62.8,19.9,27.20,South,170,5.4,8.7,19,0.00,,,0.00,VWS V14.00,2013-03-26 18:25:00,
2013-03-26 12:26:00,63.3,20.4,27.20,South,170,4.0,8.7,19,0.00,,,0.00,VWS V14.00,2013-03-26 18:26:00,
2013-03-26 12:27:00,62.4,19.6,27.20,SSW,202,8.1,10.1,19,0.00,,,0.00,VWS V14.00,2013-03-26 18:27:00,
2013-03-26 12:30:00,64.0,21.0,27.20,South,179,7.2,7.2,19,0.00,,,0.00,VWS V14.00,2013-03-26 18:30:00,
2013-03-26 12:31:00,63.9,20.8,27.20,SW,216,5.4,8.7,19,0.00,,,0.00,VWS V14.00,2013-03-26 18:31:00,
2013-03-26 12:34:00,65.7,21.0,27.20,ENE,65,2.7,8.7,18,0.00,,,0.00,VWS V14.00,2013-03-26 18:34:00,
2013-03-26 12:35:00,66.7,21.9,27.20,ENE,69,2.7,8.7,18,0.00,,,0.00,VWS V14.00,2013-03-26 18:35:00,
2013-03-26 12:36:00,68.0,23.0,27.20,ENE,69,0.0,8.7,18,0.00,,,0.00,VWS V14.00,2013-03-26 18:36:00,
2013-03-26 12:37:00,68.0,23.0,27.20,East,98,4.0,8.7,18,0.00,,,0.00,VWS V14.00,2013-03-26 18:37:00,
2013-03-26 12:40:00,71.4,24.4,27.20,SSW,210,3.1,8.7,17,0.00,,,0.00,VWS V14.00,2013-03-26 18:40:00,
2013-03-26 12:42:00,73.8,24.8,27.20,SSW,210,2.2,8.7,16,0.00,,,0.00,VWS V14.00,2013-03-26 18:42:00,
2013-03-26 12:45:00,73.2,25.8,27.20,SSW,211,5.8,8.1,17,0.00,,,0.00,VWS V14.00,2013-03-26 18:45:00,
2013-03-26 12:47:00,68.9,23.7,27.20,SW,219,3.1,8.7,18,0.00,,,0.00,VWS V14.00,2013-03-26 18:47:00,
2013-03-26 12:51:00,65.8,21.2,27.20,SW,222,12.3,12.3,18,0.00,,,0.00,VWS V14.00,2013-03-26 18:51:00,
2013-03-26 12:52:00,65.3,20.7,27.20,SSW,195,10.1,12.3,18,0.00,,,0.00,VWS V14.00,2013-03-26 18:52:00,
2013-03-26 12:53:00,64.8,20.3,27.20,South,187,8.1,12.3,18,0.00,,,0.00,VWS V14.00,2013-03-26 18:53:00,
2013-03-26 12:57:00,69.6,24.3,27.20,SW,221,4.0,12.3,18,0.00,,,0.00,VWS V14.00,2013-03-26 18:57:00,
2013-03-26 12:58:00,67.6,22.6,27.20,South,178,8.3,12.3,18,0.00,,,0.00,VWS V14.00,2013-03-26 18:58:00,
2013-03-26 13:03:00,67.1,22.2,27.20,SW,231,0.0,10.1,18,0.00,,,0.00,VWS V14.00,2013-03-26 19:03:00,
2013-03-26 13:04:00,66.2,21.5,27.20,SW,215,8.7,10.1,18,0.00,,,0.00,VWS V14.00,2013-03-26 19:04:00,
2013-03-26 13:08:00,63.9,20.8,27.20,SSW,206,5.4,11.0,19,0.00,,,0.00,VWS V14.00,2013-03-26 19:08:00,
2013-03-26 13:09:00,65.5,20.9,27.20,SW,215,2.7,11.0,18,0.00,,,0.00,VWS V14.00,2013-03-26 19:09:00,
2013-03-26 13:10:00,65.5,20.9,27.20,SSW,212,0.0,11.0,18,0.00,,,0.00,VWS V14.00,2013-03-26 19:10:00,
2013-03-26 13:13:00,67.3,22.4,27.20,SSW,203,4.9,7.6,18,0.00,,,0.00,VWS V14.00,2013-03-26 19:13:00,
2013-03-26 13:15:00,67.3,22.4,27.20,South,187,3.6,7.6,18,0.00,,,0.00,VWS V14.00,2013-03-26 19:15:00,
2013-03-26 13:18:00,65.8,21.2,27.20,SSE,163,6.3,10.5,18,0.00,,,0.00,VWS V14.00,2013-03-26 19:18:00,
2013-03-26 13:20:00,66.6,21.8,27.20,SSE,155,2.7,10.5,18,0.00,,,0.00,VWS V14.00,2013-03-26 19:20:00,
2013-03-26 13:23:00,65.8,21.2,27.20,SSW,203,8.1,10.5,18,0.00,,,0.00,VWS V14.00,2013-03-26 19:23:00,
2013-03-26 13:25:00,65.7,21.0,27.20,SSW,207,8.1,10.5,18,0.00,,,0.00,VWS V14.00,2013-03-26 19:25:00,
2013-03-26 13:29:00,68.9,23.7,27.20,South,189,3.1,3.6,18,0.00,,,0.00,VWS V14.00,2013-03-26 19:29:00,
2013-03-26 13:31:00,68.7,23.5,27.20,SW,220,8.1,8.7,18,0.00,,,0.00,VWS V14.00,2013-03-26 19:31:00,
2013-03-26 13:32:00,69.6,24.3,27.20,SW,224,2.2,8.7,18,0.00,,,0.00,VWS V14.00,2013-03-26 19:32:00,
2013-03-26 13:34:00,66.9,22.1,27.17,South,176,4.0,10.5,18,0.00,,,0.00,VWS V14.00,2013-03-26 19:34:00,
2013-03-26 13:37:00,68.9,23.7,27.17,SW,214,3.6,10.5,18,0.00,,,0.00,VWS V14.00,2013-03-26 19:37:00,
2013-03-26 13:38:00,69.8,23.1,27.17,SW,215,2.2,10.5,17,0.00,,,0.00,VWS V14.00,2013-03-26 19:38:00,
2013-03-26 13:39:00,70.3,23.5,27.17,SW,225,3.1,10.5,17,0.00,,,0.00,VWS V14.00,2013-03-26 19:39:00,
2013-03-26 13:42:00,70.3,23.5,27.17,North,357,3.6,10.5,17,0.00,,,0.00,VWS V14.00,2013-03-26 19:42:00,
2013-03-26 13:43:00,70.2,23.4,27.17,North,357,0.0,2.2,17,0.00,,,0.00,VWS V14.00,2013-03-26 19:43:00,
2013-03-26 13:44:00,71.4,24.4,27.17,NNW,341,2.7,4.0,17,0.00,,,0.00,VWS V14.00,2013-03-26 19:44:00,
2013-03-26 13:48:00,70.5,23.6,27.17,East,95,0.0,4.0,17,0.00,,,0.00,VWS V14.00,2013-03-26 19:48:00,
2013-03-26 13:49:00,71.8,24.7,27.17,ESE,103,0.0,4.0,17,0.00,,,0.00,VWS V14.00,2013-03-26 19:49:00,
2013-03-26 13:52:00,72.1,25.0,27.17,South,174,2.7,5.8,17,0.00,,,0.00,VWS V14.00,2013-03-26 19:52:00,
2013-03-26 13:53:00,70.3,23.5,27.17,South,170,10.5,10.5,17,0.00,,,0.00,VWS V14.00,2013-03-26 19:53:00,
2013-03-26 13:54:00,70.3,23.5,27.17,South,184,5.8,10.5,17,0.00,,,0.00,VWS V14.00,2013-03-26 19:54:00,
2013-03-26 13:57:00,70.0,23.2,27.17,SSE,151,2.7,10.5,17,0.00,,,0.00,VWS V14.00,2013-03-26 19:57:00,
2013-03-26 13:58:00,70.0,23.2,27.17,SSE,151,0.0,10.5,17,0.00,,,0.00,VWS V14.00,2013-03-26 19:58:00,
2013-03-26 14:00:00,72.3,25.1,27.17,SW,225,5.4,5.4,17,0.00,,,0.00,VWS V14.00,2013-03-26 20:00:00,
2013-03-26 14:03:00,74.7,25.5,27.17,WNW,283,7.2,7.2,16,0.00,,,0.00,VWS V14.00,2013-03-26 20:03:00,
2013-03-26 14:04:00,74.5,25.4,27.17,WSW,249,2.7,7.2,16,0.00,,,0.00,VWS V14.00,2013-03-26 20:04:00,
2013-03-26 14:06:00,73.4,24.5,27.17,South,187,0.0,7.2,16,0.00,,,0.00,VWS V14.00,2013-03-26 20:06:00,
2013-03-26 14:08:00,73.9,25.0,27.17,South,189,3.1,7.2,16,0.00,,,0.00,VWS V14.00,2013-03-26 20:08:00,
2013-03-26 14:09:00,74.1,25.1,27.17,SSW,211,3.6,8.1,16,0.00,,,0.00,VWS V14.00,2013-03-26 20:09:00,
2013-03-26 14:11:00,71.4,24.4,27.17,South,189,5.4,8.1,17,0.00,,,0.00,VWS V14.00,2013-03-26 20:11:00,
2013-03-26 14:13:00,72.0,24.8,27.17,South,172,2.7,2.7,17,0.00,,,0.00,VWS V14.00,2013-03-26 20:13:00,
2013-03-26 14:14:00,72.5,25.2,27.17,SSW,209,8.1,8.1,17,0.00,,,0.00,VWS V14.00,2013-03-26 20:14:00,
2013-03-26 14:17:00,73.9,25.0,27.17,WNW,303,5.4,8.3,16,0.00,,,0.00,VWS V14.00,2013-03-26 20:17:00,
2013-03-26 14:19:00,75.2,26.0,27.17,WNW,299,0.0,8.3,16,0.00,,,0.00,VWS V14.00,2013-03-26 20:19:00,
2013-03-26 14:20:00,75.6,26.3,27.17,WNW,299,0.0,8.3,16,0.00,,,0.00,VWS V14.00,2013-03-26 20:20:00,
2013-03-26 14:23:00,77.9,28.1,27.17,South,189,4.0,8.3,16,0.00,,,0.00,VWS V14.00,2013-03-26 20:23:00,
2013-03-26 14:24:00,79.0,27.4,27.17,SW,224,0.0,8.3,15,0.00,,,0.00,VWS V14.00,2013-03-26 20:24:00,
2013-03-26 14:25:00,78.4,28.6,27.17,SW,224,0.0,8.3,16,0.00,,,0.00,VWS V14.00,2013-03-26 20:25:00,
2013-03-26 14:28:00,78.8,27.3,27.17,West,266,3.1,3.1,15,0.00,,,0.00,VWS V14.00,2013-03-26 20:28:00,
2013-03-26 14:30:00,78.4,28.6,27.17,WNW,290,2.2,6.3,16,0.00,,,0.00,VWS V14.00,2013-03-26 20:30:00,
2013-03-26 14:31:00,77.7,28.0,27.17,WNW,290,2.2,6.3,16,0.00,,,0.00,VWS V14.00,2013-03-26 20:31:00,
2013-03-26 14:34:00,77.9,28.1,27.17,WSW,243,2.7,6.3,16,0.00,,,0.00,VWS V14.00,2013-03-26 20:34:00,
2013-03-26 14:35:00,76.8,27.3,27.17,SSW,198,4.0,7.6,16,0.00,,,0.00,VWS V14.00,2013-03-26 20:35:00,
2013-03-26 14:36:00,75.4,26.1,27.17,SSW,206,5.4,7.6,16,0.00,,,0.00,VWS V14.00,2013-03-26 20:36:00,
2013-03-26 14:37:00,77.0,27.4,27.17,SSW,205,2.7,7.6,16,0.00,,,0.00,VWS V14.00,2013-03-26 20:37:00,
2013-03-26 14:39:00,76.8,27.3,27.17,SSW,202,6.3,7.6,16,0.00,,,0.00,VWS V14.00,2013-03-26 20:39:00,
2013-03-26 14:41:00,75.9,26.5,27.17,SSW,206,2.7,8.7,16,0.00,,,0.00,VWS V14.00,2013-03-26 20:41:00,
2013-03-26 14:42:00,73.9,25.0,27.17,SSW,213,5.4,8.7,16,0.00,,,0.00,VWS V14.00,2013-03-26 20:42:00,
2013-03-26 14:45:00,70.3,23.5,27.17,South,179,8.1,8.7,17,0.00,,,0.00,VWS V14.00,2013-03-26 20:45:00,
2013-03-26 14:47:00,72.5,25.2,27.17,SSE,157,2.7,8.7,17,0.00,,,0.00,VWS V14.00,2013-03-26 20:47:00,
2013-03-26 14:48:00,72.1,25.0,27.17,South,173,5.4,8.7,17,0.00,,,0.00,VWS V14.00,2013-03-26 20:48:00,
2013-03-26 14:50:00,74.3,25.2,27.17,WSW,240,4.9,8.7,16,0.00,,,0.00,VWS V14.00,2013-03-26 20:50:00,
2013-03-26 14:53:00,75.9,26.5,27.17,WSW,256,5.8,8.7,16,0.00,,,0.00,VWS V14.00,2013-03-26 20:53:00,
2013-03-26 14:57:00,77.7,28.0,27.17,SW,214,8.1,8.7,16,0.00,,,0.00,VWS V14.00,2013-03-26 20:57:00,
2013-03-26 14:58:00,76.8,27.3,27.17,SSW,204,4.0,4.0,16,0.00,,,0.00,VWS V14.00,2013-03-26 20:58:00,
2013-03-26 14:59:00,72.1,25.0,27.17,SSW,203,8.3,10.5,17,0.00,,,0.00,VWS V14.00,2013-03-26 20:59:00,
2013-03-26 15:02:00,75.2,26.0,27.17,South,172,6.3,10.5,16,0.00,,,0.00,VWS V14.00,2013-03-26 21:02:00,
2013-03-26 15:04:00,73.6,24.7,27.17,ENE,73,3.1,10.5,16,0.00,,,0.00,VWS V14.00,2013-03-26 21:04:00,
2013-03-26 15:05:00,72.1,25.0,27.17,South,186,10.5,11.4,17,0.00,,,0.00,VWS V14.00,2013-03-26 21:05:00,
2013-03-26 15:08:00,75.2,26.0,27.17,SSW,207,4.0,11.4,16,0.00,,,0.00,VWS V14.00,2013-03-26 21:08:00,
2013-03-26 15:10:00,76.5,27.0,27.17,WSW,240,3.6,11.4,16,0.00,,,0.00,VWS V14.00,2013-03-26 21:10:00,
2013-03-26 15:14:00,77.2,27.6,27.17,SSW,203,6.7,8.7,16,0.00,,,0.00,VWS V14.00,2013-03-26 21:14:00,
2013-03-26 15:15:00,78.6,28.7,27.17,SSW,206,5.4,8.7,16,0.00,,,0.00,VWS V14.00,2013-03-26 21:15:00,
2013-03-26 15:20:00,75.0,25.8,27.17,SW,214,3.6,8.7,16,0.00,,,0.00,VWS V14.00,2013-03-26 21:20:00,
2013-03-26 15:21:00,77.0,27.4,27.17,West,277,3.1,8.7,16,0.00,,,0.00,VWS V14.00,2013-03-26 21:21:00,
2013-03-26 15:25:00,76.6,27.1,27.17,SW,214,7.6,8.7,16,0.00,,,0.00,VWS V14.00,2013-03-26 21:25:00,
2013-03-26 15:27:00,78.8,27.3,27.17,SW,234,2.7,8.7,15,0.00,,,0.00,VWS V14.00,2013-03-26 21:27:00,
2013-03-26 15:28:00,77.2,27.6,27.17,SW,221,4.0,6.3,16,0.00,,,0.00,VWS V14.00,2013-03-26 21:28:00,
2013-03-26 15:30:00,73.4,24.5,27.17,SW,233,8.3,8.3,16,0.00,,,0.00,VWS V14.00,2013-03-26 21:30:00,
2013-03-26 15:32:00,76.1,26.7,27.17,SSW,208,5.8,8.3,16,0.00,,,0.00,VWS V14.00,2013-03-26 21:32:00,
2013-03-26 15:33:00,73.9,25.0,27.17,South,182,6.3,8.3,16,0.00,,,0.00,VWS V14.00,2013-03-26 21:33:00,
2013-03-26 15:34:00,74.5,25.4,27.14,South,181,3.6,8.3,16,0.00,,,0.00,VWS V14.00,2013-03-26 21:34:00,
2013-03-26 15:37:00,79.5,27.9,27.14,WSW,244,3.1,8.3,15,0.00,,,0.00,VWS V14.00,2013-03-26 21:37:00,
2013-03-26 15:38:00,79.3,27.7,27.14,WSW,244,2.7,8.3,15,0.00,,,0.00,VWS V14.00,2013-03-26 21:38:00,
2013-03-26 15:39:00,79.0,27.4,27.14,WSW,244,2.7,8.3,15,0.00,,,0.00,VWS V14.00,2013-03-26 21:39:00,
2013-03-26 15:42:00,75.2,26.0,27.14,East,100,2.7,8.3,16,0.00,,,0.00,VWS V14.00,2013-03-26 21:42:00,
2013-03-26 15:45:00,79.7,28.0,27.14,NE,51,0.0,3.6,15,0.00,,,0.00,VWS V14.00,2013-03-26 21:45:00,
2013-03-26 15:46:00,79.7,28.0,27.14,NE,52,0.0,3.6,15,0.00,,,0.00,VWS V14.00,2013-03-26 21:46:00,
2013-03-26 15:48:00,71.8,24.7,27.14,South,180,8.3,11.0,17,0.00,,,0.00,VWS V14.00,2013-03-26 21:48:00,
2013-03-26 15:51:00,71.4,24.4,27.14,South,177,6.3,11.0,17,0.00,,,0.00,VWS V14.00,2013-03-26 21:51:00,
2013-03-26 15:52:00,71.4,24.4,27.14,South,191,5.8,11.0,17,0.00,,,0.00,VWS V14.00,2013-03-26 21:52:00,
2013-03-26 15:54:00,76.3,26.8,27.14,NW,306,3.1,11.0,16,0.00,,,0.00,VWS V14.00,2013-03-26 21:54:00,
2013-03-26 15:57:00,70.7,23.8,27.14,South,177,7.6,11.0,17,0.00,,,0.00,VWS V14.00,2013-03-26 21:57:00,
2013-03-26 15:58:00,73.4,24.5,27.14,SW,216,4.0,11.0,16,0.00,,,0.00,VWS V14.00,2013-03-26 21:58:00,
2013-03-26 15:59:00,74.1,25.1,27.14,South,181,4.0,4.0,16,0.00,,,0.00,VWS V14.00,2013-03-26 21:59:00,
2013-03-26 16:02:00,78.1,28.3,27.14,SSW,199,4.0,4.0,16,0.00,,,0.00,VWS V14.00,2013-03-26 22:02:00,
2013-03-26 16:03:00,77.7,28.0,27.14,SSW,193,3.6,4.9,16,0.00,,,0.00,VWS V14.00,2013-03-26 22:03:00,
2013-03-26 16:04:00,77.9,28.1,27.14,South,190,3.6,4.9,16,0.00,,,0.00,VWS V14.00,2013-03-26 22:04:00,
2013-03-26 16:07:00,76.6,27.1,27.14,SSW,208,0.0,6.3,16,0.00,,,0.00,VWS V14.00,2013-03-26 22:07:00,
2013-03-26 16:08:00,75.9,26.5,27.14,SSE,168,4.0,6.3,16,0.00,,,0.00,VWS V14.00,2013-03-26 22:08:00,
2013-03-26 16:09:00,76.6,27.1,27.14,SSE,168,3.1,6.3,16,0.00,,,0.00,VWS V14.00,2013-03-26 22:09:00,
2013-03-26 16:10:00,76.6,27.1,27.14,SSE,168,2.7,6.3,16,0.00,,,0.00,VWS V14.00,2013-03-26 22:10:00,
2013-03-26 16:12:00,77.2,27.6,27.14,SSW,208,3.6,6.3,16,0.00,,,0.00,VWS V14.00,2013-03-26 22:12:00,
2013-03-26 16:14:00,75.9,26.5,27.14,SSW,208,0.0,2.2,16,0.00,,,0.00,VWS V14.00,2013-03-26 22:14:00,
2013-03-26 16:15:00,78.6,28.7,27.14,SSW,208,0.0,2.2,16,0.00,,,0.00,VWS V14.00,2013-03-26 22:15:00,
2013-03-26 16:18:00,79.0,27.4,27.14,SW,226,3.1,6.3,15,0.00,,,0.00,VWS V14.00,2013-03-26 22:18:00,
2013-03-26 16:19:00,77.0,27.4,27.14,SSW,195,5.8,6.3,16,0.00,,,0.00,VWS V14.00,2013-03-26 22:19:00,
2013-03-26 16:20:00,77.0,27.4,27.14,SSW,192,5.8,6.3,16,0.00,,,0.00,VWS V14.00,2013-03-26 22:20:00,
2013-03-26 16:23:00,76.5,27.0,27.14,SSW,204,4.9,6.3,16,0.00,,,0.00,VWS V14.00,2013-03-26 22:23:00,
2013-03-26 16:24:00,77.2,27.6,27.14,SSW,204,2.7,6.3,16,0.00,,,0.00,VWS V14.00,2013-03-26 22:24:00,
2013-03-26 16:25:00,78.1,28.3,27.14,South,189,2.7,6.3,16,0.00,,,0.00,VWS V14.00,2013-03-26 22:25:00,
2013-03-26 16:29:00,74.8,25.7,27.14,SSW,202,6.3,8.3,16,0.00,,,0.00,VWS V14.00,2013-03-26 22:29:00,
2013-03-26 16:30:00,73.0,25.7,27.14,South,178,3.1,8.7,17,0.00,,,0.00,VWS V14.00,2013-03-26 22:30:00,
2013-03-26 16:32:00,72.3,25.1,27.14,SSE,166,2.7,9.2,17,0.00,,,0.00,VWS V14.00,2013-03-26 22:32:00,
2013-03-26 16:34:00,72.0,24.8,27.14,South,177,4.0,9.2,17,0.00,,,0.00,VWS V14.00,2013-03-26 22:34:00,
2013-03-26 16:35:00,72.0,24.8,27.14,South,187,3.6,9.2,17,0.00,,,0.00,VWS V14.00,2013-03-26 22:35:00,
2013-03-26 16:38:00,73.9,25.0,27.14,South,187,0.0,9.2,16,0.00,,,0.00,VWS V14.00,2013-03-26 22:38:00,
2013-03-26 16:39:00,75.2,26.0,27.14,South,187,0.0,9.2,16,0.00,,,0.00,VWS V14.00,2013-03-26 22:39:00,
2013-03-26 16:41:00,75.2,26.0,27.14,South,188,3.6,9.2,16,0.00,,,0.00,VWS V14.00,2013-03-26 22:41:00,
2013-03-26 16:43:00,69.4,24.1,27.14,South,187,8.3,10.5,18,0.00,,,0.00,VWS V14.00,2013-03-26 22:43:00,
2013-03-26 16:44:00,69.8,23.1,27.14,SSW,193,7.6,10.5,17,0.00,,,0.00,VWS V14.00,2013-03-26 22:44:00,
2013-03-26 16:46:00,71.1,24.1,27.14,SSW,194,5.8,10.5,17,0.00,,,0.00,VWS V14.00,2013-03-26 22:46:00,
2013-03-26 16:49:00,69.4,24.1,27.11,South,179,7.6,10.5,18,0.00,,,0.00,VWS V14.00,2013-03-26 22:49:00,
2013-03-26 16:50:00,69.4,24.1,27.11,South,175,5.8,10.5,18,0.00,,,0.00,VWS V14.00,2013-03-26 22:50:00,
2013-03-26 16:54:00,71.1,24.1,27.11,SW,217,5.4,10.5,17,0.00,,,0.00,VWS V14.00,2013-03-26 22:54:00,
2013-03-26 16:57:00,69.3,24.0,27.11,SSW,197,6.3,10.5,18,0.00,,,0.00,VWS V14.00,2013-03-26 22:57:00,
2013-03-26 17:00:00,71.8,24.7,27.11,SSW,200,3.1,4.0,17,0.00,,,0.00,VWS V14.00,2013-03-26 23:00:00,
2013-03-26 17:01:00,70.2,23.4,27.11,SE,130,2.7,4.9,17,0.00,,,0.00,VWS V14.00,2013-03-26 23:01:00,
2013-03-26 17:03:00,71.2,24.2,27.11,SSE,168,4.9,5.4,17,0.00,,,0.00,VWS V14.00,2013-03-26 23:03:00,
2013-03-26 17:05:00,69.3,24.0,27.11,South,169,4.0,6.3,18,0.00,,,0.00,VWS V14.00,2013-03-26 23:05:00,
2013-03-26 17:07:00,68.2,23.1,27.11,South,172,5.4,6.3,18,0.00,,,0.00,VWS V14.00,2013-03-26 23:07:00,
2013-03-26 17:08:00,67.8,22.8,27.11,SSW,199,5.4,6.3,18,0.00,,,0.00,VWS V14.00,2013-03-26 23:08:00,
2013-03-26 17:12:00,66.2,21.5,27.11,South,180,5.8,6.3,18,0.00,,,0.00,VWS V14.00,2013-03-26 23:12:00,
2013-03-26 17:13:00,65.7,21.0,27.11,SSW,207,5.4,6.3,18,0.00,,,0.00,VWS V14.00,2013-03-26 23:13:00,
2013-03-26 17:17:00,64.6,20.1,27.11,South,180,3.6,6.3,18,0.00,,,0.00,VWS V14.00,2013-03-26 23:17:00,
2013-03-26 17:18:00,64.4,20.0,27.11,South,180,5.8,7.6,18,0.00,,,0.00,VWS V14.00,2013-03-26 23:18:00,
2013-03-26 17:19:00,64.6,20.1,27.11,South,172,5.8,8.7,18,0.00,,,0.00,VWS V14.00,2013-03-26 23:19:00,
2013-03-26 17:22:00,64.2,21.1,27.11,SSW,195,5.4,8.7,19,0.00,,,0.00,VWS V14.00,2013-03-26 23:22:00,
2013-03-26 17:23:00,64.2,21.1,27.11,SSW,202,4.0,8.7,19,0.00,,,0.00,VWS V14.00,2013-03-26 23:23:00,
2013-03-26 17:24:00,64.0,21.0,27.11,SSW,208,4.0,8.7,19,0.00,,,0.00,VWS V14.00,2013-03-26 23:24:00,
2013-03-26 17:25:00,63.9,20.8,27.11,SSW,208,3.1,8.7,19,0.00,,,0.00,VWS V14.00,2013-03-26 23:25:00,
2013-03-26 17:27:00,63.7,20.7,27.11,SSW,195,5.4,8.7,19,0.00,,,0.00,VWS V14.00,2013-03-26 23:27:00,
2013-03-26 17:28:00,63.7,20.7,27.11,South,182,5.4,5.4,19,0.00,,,0.00,VWS V14.00,2013-03-26 23:28:00,
2013-03-26 17:29:00,63.7,20.7,27.11,SW,224,6.3,6.3,19,0.00,,,0.00,VWS V14.00,2013-03-26 23:29:00,
2013-03-26 17:31:00,63.5,20.5,27.11,SSE,158,2.7,6.3,19,0.00,,,0.00,VWS V14.00,2013-03-26 23:31:00,
2013-03-26 17:33:00,63.5,20.5,27.11,South,187,7.6,7.6,19,0.00,,,0.00,VWS V14.00,2013-03-26 23:33:00,
2013-03-26 17:34:00,63.5,20.5,27.11,South,187,4.0,7.6,19,0.00,,,0.00,VWS V14.00,2013-03-26 23:34:00,
2013-03-26 17:36:00,63.3,20.4,27.11,South,184,0.0,7.6,19,0.00,,,0.00,VWS V14.00,2013-03-26 23:36:00,
2013-03-26 17:38:00,63.1,20.2,27.11,South,190,7.6,7.6,19,0.00,,,0.00,VWS V14.00,2013-03-26 23:38:00,
2013-03-26 17:39:00,63.1,20.2,27.11,South,171,3.6,8.1,19,0.00,,,0.00,VWS V14.00,2013-03-26 23:39:00,
2013-03-26 17:40:00,63.1,20.2,27.11,South,171,2.7,8.1,19,0.00,,,0.00,VWS V14.00,2013-03-26 23:40:00,
2013-03-26 17:42:00,63.0,20.1,27.11,South,171,0.0,8.1,19,0.00,,,0.00,VWS V14.00,2013-03-26 23:42:00,
2013-03-26 17:44:00,62.6,19.8,27.11,South,171,3.6,3.6,19,0.00,,,0.00,VWS V14.00,2013-03-26 23:44:00,
2013-03-26 17:45:00,62.8,19.9,27.11,SSE,163,5.8,5.8,19,0.00,,,0.00,VWS V14.00,2013-03-26 23:45:00,
2013-03-26 17:48:00,63.0,20.1,27.11,SSE,158,4.9,6.3,19,0.00,,,0.00,VWS V14.00,2013-03-26 23:48:00,
2013-03-26 17:49:00,63.3,20.4,27.11,SSW,197,7.6,7.6,19,0.00,,,0.00,VWS V14.00,2013-03-26 23:49:00,
2013-03-26 17:50:00,63.3,20.4,27.11,SSE,155,5.8,7.6,19,0.00,,,0.00,VWS V14.00,2013-03-26 23:50:00,
2013-03-26 17:54:00,63.3,20.4,27.11,South,169,5.4,8.3,19,0.00,,,0.00,VWS V14.00,2013-03-26 23:54:00,
2013-03-26 17:57:00,63.0,20.1,27.11,SSW,192,3.1,8.3,19,0.00,,,0.00,VWS V14.00,2013-03-26 23:57:00,
2013-03-26 17:59:00,63.0,20.1,27.11,SSW,197,5.8,7.6,19,0.00,,,0.00,VWS V14.00,2013-03-26 23:59:00,
2013-03-26 18:02:00,62.6,19.8,27.11,SSW,197,0.0,7.6,19,0.00,,,0.00,VWS V14.00,2013-03-27 00:02:00,
2013-03-26 18:04:00,62.2,19.5,27.11,SSW,196,0.0,7.6,19,0.00,,,0.00,VWS V14.00,2013-03-27 00:04:00,
2013-03-26 18:05:00,62.2,19.5,27.11,SSW,196,0.0,7.6,19,0.00,,,0.00,VWS V14.00,2013-03-27 00:05:00,
2013-03-26 18:07:00,61.7,19.0,27.11,South,171,0.0,7.6,19,0.00,,,0.00,VWS V14.00,2013-03-27 00:07:00,
2013-03-26 18:09:00,61.5,18.9,27.11,South,185,2.7,7.6,19,0.00,,,0.00,VWS V14.00,2013-03-27 00:09:00,
2013-03-26 18:10:00,61.3,18.8,27.11,South,185,2.7,7.6,19,0.00,,,0.00,VWS V14.00,2013-03-27 00:10:00,
2013-03-26 18:11:00,61.3,18.8,27.11,South,183,2.7,7.6,19,0.00,,,0.00,VWS V14.00,2013-03-27 00:11:00,
2013-03-26 18:12:00,61.2,18.6,27.11,SSW,193,3.6,7.6,19,0.00,,,0.00,VWS V14.00,2013-03-27 00:12:00,
2013-03-26 18:14:00,61.2,18.6,27.11,SSW,208,0.0,6.3,19,0.00,,,0.00,VWS V14.00,2013-03-27 00:14:00,
2013-03-26 18:15:00,61.2,18.6,27.11,SSW,208,0.0,6.3,19,0.00,,,0.00,VWS V14.00,2013-03-27 00:15:00,
2013-03-26 18:17:00,61.0,18.5,27.11,SSW,205,3.1,6.3,19,0.00,,,0.00,VWS V14.00,2013-03-27 00:17:00,
2013-03-26 18:18:00,60.8,18.3,27.11,SSW,205,2.2,6.3,19,0.00,,,0.00,VWS V14.00,2013-03-27 00:18:00,
2013-03-26 18:19:00,60.8,18.3,27.08,SSW,205,2.7,6.3,19,0.00,,,0.00,VWS V14.00,2013-03-27 00:19:00,
2013-03-26 18:23:00,60.4,19.2,27.08,SSW,202,0.0,6.3,20,0.00,,,0.00,VWS V14.00,2013-03-27 00:23:00,
2013-03-26 18:24:00,60.1,18.9,27.08,SSW,202,0.0,6.3,20,0.00,,,0.00,VWS V14.00,2013-03-27 00:24:00,
2013-03-26 18:28:00,59.9,18.8,27.08,South,182,3.6,4.9,20,0.00,,,0.00,VWS V14.00,2013-03-27 00:28:00,
2013-03-26 18:29:00,59.9,18.8,27.08,South,182,2.7,4.9,20,0.00,,,0.00,VWS V14.00,2013-03-27 00:29:00,
2013-03-26 18:30:00,60.1,18.9,27.08,South,182,2.7,4.9,20,0.00,,,0.00,VWS V14.00,2013-03-27 00:30:00,
2013-03-26 18:33:00,59.9,18.8,27.08,South,182,0.0,4.9,20,0.00,,,0.00,VWS V14.00,2013-03-27 00:33:00,
2013-03-26 18:34:00,59.7,18.6,27.08,South,182,2.7,4.9,20,0.00,,,0.00,VWS V14.00,2013-03-27 00:34:00,
2013-03-26 18:35:00,59.7,18.6,27.08,South,182,0.0,4.9,20,0.00,,,0.00,VWS V14.00,2013-03-27 00:35:00,
2013-03-26 18:38:00,59.4,18.3,27.08,SSE,165,0.0,5.4,20,0.00,,,0.00,VWS V14.00,2013-03-27 00:38:00,
2013-03-26 18:39:00,59.4,18.3,27.08,SSE,165,2.2,5.4,20,0.00,,,0.00,VWS V14.00,2013-03-27 00:39:00,
2013-03-26 18:40:00,59.2,18.2,27.08,SSE,165,2.7,5.4,20,0.00,,,0.00,VWS V14.00,2013-03-27 00:40:00,
2013-03-26 18:44:00,58.3,17.4,27.08,SSE,167,0.0,0.0,20,0.00,,,0.00,VWS V14.00,2013-03-27 00:44:00,
2013-03-26 18:45:00,58.1,17.3,27.08,SSE,167,0.0,0.0,20,0.00,,,0.00,VWS V14.00,2013-03-27 00:45:00,
2013-03-26 18:49:00,57.2,16.5,27.08,SSE,152,0.0,2.7,20,0.00,,,0.00,VWS V14.00,2013-03-27 00:49:00,
2013-03-26 18:50:00,57.2,16.5,27.08,SSE,153,3.1,3.1,20,0.00,,,0.00,VWS V14.00,2013-03-27 00:50:00,
2013-03-26 18:51:00,57.0,16.4,27.08,SSE,153,0.0,3.1,20,0.00,,,0.00,VWS V14.00,2013-03-27 00:51:00,
2013-03-26 18:54:00,56.5,15.9,27.08,SSE,153,0.0,3.1,20,0.00,,,0.00,VWS V14.00,2013-03-27 00:54:00,
2013-03-26 18:57:00,56.3,15.8,27.08,South,178,2.2,3.1,20,0.00,,,0.00,VWS V14.00,2013-03-27 00:57:00,
2013-03-26 18:58:00,56.1,15.6,27.08,South,178,0.0,3.1,20,0.00,,,0.00,VWS V14.00,2013-03-27 00:58:00,
2013-03-26 19:01:00,56.1,15.6,27.08,South,181,0.0,3.6,20,0.00,,,0.00,VWS V14.00,2013-03-27 01:01:00,
2013-03-26 19:03:00,56.1,15.6,27.08,South,181,0.0,3.6,20,0.00,,,0.00,VWS V14.00,2013-03-27 01:03:00,
2013-03-26 19:04:00,56.3,15.8,27.08,South,181,2.2,3.6,20,0.00,,,0.00,VWS V14.00,2013-03-27 01:04:00,
2013-03-26 19:07:00,56.1,15.6,27.08,SSE,164,2.7,3.6,20,0.00,,,0.00,VWS V14.00,2013-03-27 01:07:00,
2013-03-26 19:08:00,56.1,15.6,27.08,SSE,164,0.0,3.6,20,0.00,,,0.00,VWS V14.00,2013-03-27 01:08:00,
2013-03-26 19:09:00,55.9,15.5,27.08,ESE,118,0.0,3.6,20,0.00,,,0.00,VWS V14.00,2013-03-27 01:09:00,
2013-03-26 19:13:00,55.8,15.3,27.08,South,180,3.1,3.6,20,0.00,,,0.00,VWS V14.00,2013-03-27 01:13:00,
2013-03-26 19:14:00,55.9,15.5,27.08,South,179,3.6,3.6,20,0.00,,,0.00,VWS V14.00,2013-03-27 01:14:00,
2013-03-26 19:15:00,55.9,15.5,27.08,SSE,167,0.0,5.4,20,0.00,,,0.00,VWS V14.00,2013-03-27 01:15:00,
2013-03-26 19:18:00,55.8,15.3,27.08,SSE,149,0.0,5.4,20,0.00,,,0.00,VWS V14.00,2013-03-27 01:18:00,
2013-03-26 19:19:00,55.8,15.3,27.08,SSE,157,3.1,5.4,20,0.00,,,0.00,VWS V14.00,2013-03-27 01:19:00,
2013-03-26 19:20:00,55.8,15.3,27.08,SSE,162,2.7,5.4,20,0.00,,,0.00,VWS V14.00,2013-03-27 01:20:00,
2013-03-26 19:23:00,55.8,15.3,27.08,SSE,161,0.0,5.4,20,0.00,,,0.00,VWS V14.00,2013-03-27 01:23:00,
2013-03-26 19:24:00,55.6,15.2,27.08,SSE,160,0.0,5.4,20,0.00,,,0.00,VWS V14.00,2013-03-27 01:24:00,
2013-03-26 19:26:00,55.6,15.2,27.08,SSE,160,2.7,5.4,20,0.00,,,0.00,VWS V14.00,2013-03-27 01:26:00,
2013-03-26 19:28:00,55.4,15.0,27.08,SE,146,5.4,5.4,20,0.00,,,0.00,VWS V14.00,2013-03-27 01:28:00,
2013-03-26 19:30:00,55.6,15.2,27.08,SSE,157,5.4,5.4,20,0.00,,,0.00,VWS V14.00,2013-03-27 01:30:00,
2013-03-26 19:32:00,55.8,15.3,27.08,SSE,166,3.1,5.4,20,0.00,,,0.00,VWS V14.00,2013-03-27 01:32:00,
2013-03-26 19:33:00,55.8,15.3,27.08,South,181,0.0,5.4,20,0.00,,,0.00,VWS V14.00,2013-03-27 01:33:00,
2013-03-26 19:34:00,55.8,15.3,27.05,ESE,115,2.7,5.4,20,0.00,,,0.00,VWS V14.00,2013-03-27 01:34:00,
2013-03-26 19:37:00,55.8,15.3,27.05,SE,141,2.7,5.4,20,0.00,,,0.00,VWS V14.00,2013-03-27 01:37:00,
2013-03-26 19:38:00,55.8,15.3,27.05,SE,141,2.2,5.4,20,0.00,,,0.00,VWS V14.00,2013-03-27 01:38:00,
2013-03-26 19:39:00,55.6,15.2,27.05,South,176,2.7,5.4,20,0.00,,,0.00,VWS V14.00,2013-03-27 01:39:00,
2013-03-26 19:43:00,55.4,15.0,27.05,SSE,149,2.2,3.1,20,0.00,,,0.00,VWS V14.00,2013-03-27 01:43:00,
2013-03-26 19:44:00,55.2,16.0,27.05,SSE,149,2.2,3.1,21,0.00,,,0.00,VWS V14.00,2013-03-27 01:44:00,
2013-03-26 19:45:00,55.2,16.0,27.05,South,172,2.7,5.8,21,0.00,,,0.00,VWS V14.00,2013-03-27 01:45:00,
2013-03-26 19:49:00,55.2,16.0,27.05,SSE,161,2.7,5.8,21,0.00,,,0.00,VWS V14.00,2013-03-27 01:49:00,
2013-03-26 19:50:00,55.0,15.8,27.05,SSE,162,2.7,5.8,21,0.00,,,0.00,VWS V14.00,2013-03-27 01:50:00,
2013-03-26 19:51:00,55.0,15.8,27.05,SSE,164,2.7,5.8,21,0.00,,,0.00,VWS V14.00,2013-03-27 01:51:00,
2013-03-26 19:54:00,55.0,15.8,27.05,South,175,4.0,5.8,21,0.00,,,0.00,VWS V14.00,2013-03-27 01:54:00,
2013-03-26 19:55:00,55.2,16.0,27.05,ESE,115,4.9,5.8,21,0.00,,,0.00,VWS V14.00,2013-03-27 01:55:00,
2013-03-26 19:57:00,55.4,15.0,27.05,SSE,165,0.0,5.8,20,0.00,,,0.00,VWS V14.00,2013-03-27 01:57:00,
2013-03-26 20:00:00,55.2,16.0,27.05,SE,128,4.0,4.0,21,0.00,,,0.00,VWS V14.00,2013-03-27 02:00:00,
2013-03-26 20:01:00,55.2,16.0,27.05,South,190,4.0,4.0,21,0.00,,,0.00,VWS V14.00,2013-03-27 02:01:00,
2013-03-26 20:03:00,55.0,15.8,27.05,South,175,2.2,4.0,21,0.00,,,0.00,VWS V14.00,2013-03-27 02:03:00,
2013-03-26 20:05:00,55.0,15.8,27.05,SSE,148,3.6,6.3,21,0.00,,,0.00,VWS V14.00,2013-03-27 02:05:00,
2013-03-26 20:06:00,55.0,15.8,27.05,SSE,158,3.6,6.3,21,0.00,,,0.00,VWS V14.00,2013-03-27 02:06:00,
2013-03-26 20:08:00,55.6,15.2,27.05,SE,137,3.6,6.3,20,0.00,,,0.00,VWS V14.00,2013-03-27 02:08:00,
2013-03-26 20:11:00,54.9,15.7,27.05,ESE,102,2.7,6.3,21,0.00,,,0.00,VWS V14.00,2013-03-27 02:11:00,
2013-03-26 20:12:00,54.9,15.7,27.05,SE,135,2.7,6.3,21,0.00,,,0.00,VWS V14.00,2013-03-27 02:12:00,
2013-03-26 20:13:00,54.9,15.7,27.05,SE,129,0.0,3.1,21,0.00,,,0.00,VWS V14.00,2013-03-27 02:13:00,
2013-03-26 20:17:00,54.3,15.2,27.05,SSE,158,4.0,4.0,21,0.00,,,0.00,VWS V14.00,2013-03-27 02:17:00,
2013-03-26 20:18:00,54.1,15.1,27.05,South,176,3.1,5.8,21,0.00,,,0.00,VWS V14.00,2013-03-27 02:18:00,
2013-03-26 20:19:00,54.1,15.1,27.02,SSE,147,3.6,5.8,21,0.00,,,0.00,VWS V14.00,2013-03-27 02:19:00,
2013-03-26 20:22:00,54.5,15.4,27.02,SSE,158,6.3,6.3,21,0.00,,,0.00,VWS V14.00,2013-03-27 02:22:00,
2013-03-26 20:23:00,54.5,15.4,27.02,SSE,167,2.7,6.3,21,0.00,,,0.00,VWS V14.00,2013-03-27 02:23:00,
2013-03-26 20:24:00,54.5,15.4,27.02,SSE,165,2.2,6.3,21,0.00,,,0.00,VWS V14.00,2013-03-27 02:24:00,
2013-03-26 20:27:00,54.3,15.2,27.02,East,88,2.2,6.3,21,0.00,,,0.00,VWS V14.00,2013-03-27 02:27:00,
2013-03-26 20:28:00,54.3,15.2,27.02,South,184,3.1,4.0,21,0.00,,,0.00,VWS V14.00,2013-03-27 02:28:00,
2013-03-26 20:29:00,54.1,15.1,27.02,South,182,3.6,4.0,21,0.00,,,0.00,VWS V14.00,2013-03-27 02:29:00,
2013-03-26 20:30:00,54.1,15.1,27.02,South,179,3.6,4.0,21,0.00,,,0.00,VWS V14.00,2013-03-27 02:30:00,
2013-03-26 20:33:00,54.5,15.4,27.02,SE,127,4.0,4.9,21,0.00,,,0.00,VWS V14.00,2013-03-27 02:33:00,
2013-03-26 20:34:00,54.5,15.4,27.02,SSE,168,4.9,4.9,21,0.00,,,0.00,VWS V14.00,2013-03-27 02:34:00,
2013-03-26 20:35:00,54.5,15.4,27.02,South,186,4.9,6.3,21,0.00,,,0.00,VWS V14.00,2013-03-27 02:35:00,
2013-03-26 20:37:00,54.5,15.4,27.02,SSE,152,2.7,6.3,21,0.00,,,0.00,VWS V14.00,2013-03-27 02:37:00,
2013-03-26 20:38:00,54.1,15.1,27.02,SSE,167,2.7,6.3,21,0.00,,,0.00,VWS V14.00,2013-03-27 02:38:00,
2013-03-26 20:40:00,54.0,14.9,27.02,SSE,162,3.1,8.1,21,0.00,,,0.00,VWS V14.00,2013-03-27 02:40:00,
2013-03-26 20:41:00,54.0,14.9,27.02,SSE,156,3.1,8.1,21,0.00,,,0.00,VWS V14.00,2013-03-27 02:41:00,
2013-03-26 20:42:00,54.0,14.9,27.02,SE,137,3.1,8.1,21,0.00,,,0.00,VWS V14.00,2013-03-27 02:42:00,
2013-03-26 20:43:00,54.0,14.9,27.02,South,186,3.6,6.7,21,0.00,,,0.00,VWS V14.00,2013-03-27 02:43:00,
2013-03-26 20:45:00,54.0,14.9,27.02,South,177,4.0,6.7,21,0.00,,,0.00,VWS V14.00,2013-03-27 02:45:00,
2013-03-26 20:47:00,54.0,14.9,27.02,South,171,2.7,6.7,21,0.00,,,0.00,VWS V14.00,2013-03-27 02:47:00,
2013-03-26 20:48:00,53.6,14.6,27.02,SSW,195,5.4,6.7,21,0.00,,,0.00,VWS V14.00,2013-03-27 02:48:00,
2013-03-26 20:50:00,53.4,14.5,27.02,SSE,167,3.1,6.7,21,0.00,,,0.00,VWS V14.00,2013-03-27 02:50:00,
2013-03-26 20:53:00,53.2,14.3,27.02,SSE,151,4.9,6.7,21,0.00,,,0.00,VWS V14.00,2013-03-27 02:53:00,
2013-03-26 20:55:00,53.1,14.2,27.02,SSE,167,3.6,6.7,21,0.00,,,0.00,VWS V14.00,2013-03-27 02:55:00,
2013-03-26 20:57:00,52.9,14.0,27.02,SSE,154,3.1,6.7,21,0.00,,,0.00,VWS V14.00,2013-03-27 02:57:00,
2013-03-26 20:58:00,52.9,14.0,27.02,SSE,160,5.4,5.4,21,0.00,,,0.00,VWS V14.00,2013-03-27 02:58:00,
2013-03-26 21:00:00,52.9,14.0,27.02,SSW,206,4.0,5.4,21,0.00,,,0.00,VWS V14.00,2013-03-27 03:00:00,
2013-03-26 21:02:00,52.7,13.9,27.02,South,175,3.1,5.4,21,0.00,,,0.00,VWS V14.00,2013-03-27 03:02:00,
2013-03-26 21:04:00,52.5,13.7,27.02,South,171,3.1,5.4,21,0.00,,,0.00,VWS V14.00,2013-03-27 03:04:00,
2013-03-26 21:05:00,52.3,13.6,27.02,SSW,194,3.1,5.4,21,0.00,,,0.00,VWS V14.00,2013-03-27 03:05:00,
2013-03-26 21:06:00,52.3,13.6,27.02,SSW,192,3.1,5.4,21,0.00,,,0.00,VWS V14.00,2013-03-27 03:06:00,
2013-03-26 21:07:00,52.3,13.6,27.02,SSE,167,3.1,5.4,21,0.00,,,0.00,VWS V14.00,2013-03-27 03:07:00,
2013-03-26 21:09:00,52.9,14.0,27.02,SSE,160,2.2,5.8,21,0.00,,,0.00,VWS V14.00,2013-03-27 03:09:00,
2013-03-26 21:12:00,52.5,13.7,27.02,South,172,3.1,5.8,21,0.00,,,0.00,VWS V14.00,2013-03-27 03:12:00,
2013-03-26 21:13:00,52.5,13.7,27.02,South,177,2.7,5.8,21,0.00,,,0.00,VWS V14.00,2013-03-27 03:13:00,
2013-03-26 21:14:00,52.5,13.7,27.02,SSE,153,5.4,5.4,21,0.00,,,0.00,VWS V14.00,2013-03-27 03:14:00,
2013-03-26 21:17:00,52.3,13.6,27.02,SE,146,3.6,5.4,21,0.00,,,0.00,VWS V14.00,2013-03-27 03:17:00,
2013-03-26 21:18:00,52.3,13.6,27.02,South,177,4.0,5.4,21,0.00,,,0.00,VWS V14.00,2013-03-27 03:18:00,
2013-03-26 21:19:00,52.2,13.4,27.02,South,177,0.0,5.4,21,0.00,,,0.00,VWS V14.00,2013-03-27 03:19:00,
2013-03-26 21:20:00,52.0,13.3,27.02,South,177,3.1,5.4,21,0.00,,,0.00,VWS V14.00,2013-03-27 03:20:00,
2013-03-26 21:23:00,51.6,13.0,27.02,SSW,195,2.7,5.8,21,0.00,,,0.00,VWS V14.00,2013-03-27 03:23:00,
2013-03-26 21:24:00,51.8,13.1,27.02,SSE,147,2.7,5.8,21,0.00,,,0.00,VWS V14.00,2013-03-27 03:24:00,
2013-03-26 21:26:00,51.8,13.1,27.02,South,187,3.1,5.8,21,0.00,,,0.00,VWS V14.00,2013-03-27 03:26:00,
2013-03-26 21:29:00,51.6,13.0,27.02,SSW,197,3.1,4.0,21,0.00,,,0.00,VWS V14.00,2013-03-27 03:29:00,
2013-03-26 21:32:00,51.6,13.0,27.02,SE,137,3.6,8.3,21,0.00,,,0.00,VWS V14.00,2013-03-27 03:32:00,
2013-03-26 21:34:00,52.2,13.4,27.02,SSE,168,3.6,8.3,21,0.00,,,0.00,VWS V14.00,2013-03-27 03:34:00,
2013-03-26 21:35:00,52.2,13.4,27.02,South,173,3.6,8.3,21,0.00,,,0.00,VWS V14.00,2013-03-27 03:35:00,
2013-03-26 21:38:00,52.0,13.3,27.02,South,178,0.0,8.3,21,0.00,,,0.00,VWS V14.00,2013-03-27 03:38:00,
2013-03-26 21:39:00,51.8,13.1,27.02,South,180,2.7,8.3,21,0.00,,,0.00,VWS V14.00,2013-03-27 03:39:00,
2013-03-26 21:40:00,51.8,13.1,27.02,South,175,4.9,8.3,21,0.00,,,0.00,VWS V14.00,2013-03-27 03:40:00,
2013-03-26 21:41:00,51.6,13.0,27.02,South,183,3.6,8.3,21,0.00,,,0.00,VWS V14.00,2013-03-27 03:41:00,
2013-03-26 21:44:00,51.3,12.7,27.02,South,183,0.0,3.1,21,0.00,,,0.00,VWS V14.00,2013-03-27 03:44:00,
2013-03-26 21:45:00,51.3,12.7,27.02,South,189,4.0,4.0,21,0.00,,,0.00,VWS V14.00,2013-03-27 03:45:00,
2013-03-26 21:46:00,51.3,12.7,27.02,SSW,193,2.2,4.0,21,0.00,,,0.00,VWS V14.00,2013-03-27 03:46:00,
2013-03-26 21:49:00,51.1,12.5,26.99,South,174,3.6,5.8,21,0.00,,,0.00,VWS V14.00,2013-03-27 03:49:00,
2013-03-26 21:50:00,50.9,12.4,26.99,South,179,4.9,5.8,21,0.00,,,0.00,VWS V14.00,2013-03-27 03:50:00,
2013-03-26 21:51:00,50.9,12.4,26.99,SE,137,2.7,5.8,21,0.00,,,0.00,VWS V14.00,2013-03-27 03:51:00,
2013-03-26 21:53:00,51.1,12.5,26.99,SE,146,3.1,5.8,21,0.00,,,0.00,VWS V14.00,2013-03-27 03:53:00,
2013-03-26 21:54:00,50.9,12.4,26.99,SE,145,2.2,5.8,21,0.00,,,0.00,VWS V14.00,2013-03-27 03:54:00,
2013-03-26 21:56:00,50.9,12.4,26.99,South,182,3.6,5.8,21,0.00,,,0.00,VWS V14.00,2013-03-27 03:56:00,
2013-03-26 21:57:00,50.9,12.4,26.99,SSE,150,5.8,7.6,21,0.00,,,0.00,VWS V14.00,2013-03-27 03:57:00,
2013-03-26 21:58:00,51.1,12.5,26.99,South,190,5.4,5.4,21,0.00,,,0.00,VWS V14.00,2013-03-27 03:58:00,
2013-03-26 22:00:00,51.1,12.5,26.99,South,182,2.2,7.2,21,0.00,,,0.00,VWS V14.00,2013-03-27 04:00:00,
2013-03-26 22:02:00,51.1,12.5,26.99,SSW,195,2.7,7.2,21,0.00,,,0.00,VWS V14.00,2013-03-27 04:02:00,
2013-03-26 22:05:00,50.7,12.2,26.99,South,178,3.6,7.2,21,0.00,,,0.00,VWS V14.00,2013-03-27 04:05:00,
2013-03-26 22:07:00,50.7,12.2,26.99,South,189,2.2,7.2,21,0.00,,,0.00,VWS V14.00,2013-03-27 04:07:00,
2013-03-26 22:10:00,50.7,12.2,26.99,South,169,4.9,7.2,21,0.00,,,0.00,VWS V14.00,2013-03-27 04:10:00,
2013-03-26 22:11:00,50.7,12.2,26.99,SSE,168,2.7,7.2,21,0.00,,,0.00,VWS V14.00,2013-03-27 04:11:00,
2013-03-26 22:12:00,50.9,12.4,26.99,SSE,165,6.3,7.2,21,0.00,,,0.00,VWS V14.00,2013-03-27 04:12:00,
2013-03-26 22:14:00,50.7,12.2,26.99,SSW,194,2.7,4.5,21,0.00,,,0.00,VWS V14.00,2013-03-27 04:14:00,
2013-03-26 22:15:00,50.7,12.2,26.99,SSE,166,5.4,5.4,21,0.00,,,0.00,VWS V14.00,2013-03-27 04:15:00,
2013-03-26 22:18:00,51.1,12.5,26.99,SSE,154,0.0,5.8,21,0.00,,,0.00,VWS V14.00,2013-03-27 04:18:00,
2013-03-26 22:20:00,50.7,12.2,26.99,SSW,201,4.9,5.8,21,0.00,,,0.00,VWS V14.00,2013-03-27 04:20:00,
2013-03-26 22:23:00,50.7,12.2,26.99,SSW,196,7.6,8.7,21,0.00,,,0.00,VWS V14.00,2013-03-27 04:23:00,
2013-03-26 22:25:00,50.4,11.9,26.99,South,171,3.1,8.7,21,0.00,,,0.00,VWS V14.00,2013-03-27 04:25:00,
2013-03-26 22:26:00,50.2,11.8,26.99,South,180,2.7,8.7,21,0.00,,,0.00,VWS V14.00,2013-03-27 04:26:00,
2013-03-26 22:28:00,50.0,11.6,26.99,SSE,167,0.0,3.1,21,0.00,,,0.00,VWS V14.00,2013-03-27 04:28:00,
2013-03-26 22:30:00,50.0,11.6,26.99,South,176,2.2,4.0,21,0.00,,,0.00,VWS V14.00,2013-03-27 04:30:00,
2013-03-26 22:31:00,49.8,12.5,26.99,South,177,0.0,4.0,22,0.00,,,0.00,VWS V14.00,2013-03-27 04:31:00,
2013-03-26 22:32:00,50.0,11.6,26.99,South,184,8.7,8.7,21,0.00,,,0.00,VWS V14.00,2013-03-27 04:32:00,
2013-03-26 22:34:00,49.8,12.5,26.99,SW,233,4.0,8.7,22,0.00,,,0.00,VWS V14.00,2013-03-27 04:34:00,
2013-03-26 22:36:00,49.8,12.5,26.99,East,87,2.2,8.7,22,0.00,,,0.00,VWS V14.00,2013-03-27 04:36:00,
2013-03-26 22:37:00,49.8,12.5,26.99,SSE,168,3.6,8.7,22,0.00,,,0.00,VWS V14.00,2013-03-27 04:37:00,
2013-03-26 22:39:00,50.2,11.8,26.99,SSW,201,4.9,8.7,21,0.00,,,0.00,VWS V14.00,2013-03-27 04:39:00,
2013-03-26 22:41:00,50.0,11.6,26.99,South,186,0.0,8.7,21,0.00,,,0.00,VWS V14.00,2013-03-27 04:41:00,
2013-03-26 22:42:00,50.2,11.8,26.99,South,187,6.7,8.7,21,0.00,,,0.00,VWS V14.00,2013-03-27 04:42:00,
2013-03-26 22:43:00,50.2,11.8,26.99,South,170,5.8,8.7,21,0.00,,,0.00,VWS V14.00,2013-03-27 04:43:00,
2013-03-26 22:44:00,50.2,11.8,26.99,South,186,3.6,6.3,21,0.00,,,0.00,VWS V14.00,2013-03-27 04:44:00,
2013-03-26 22:47:00,50.0,11.6,26.99,South,190,4.0,6.3,21,0.00,,,0.00,VWS V14.00,2013-03-27 04:47:00,
2013-03-26 22:48:00,50.0,11.6,26.99,South,190,2.2,6.3,21,0.00,,,0.00,VWS V14.00,2013-03-27 04:48:00,
2013-03-26 22:49:00,50.0,11.6,26.99,South,190,3.1,7.6,21,0.00,,,0.00,VWS V14.00,2013-03-27 04:49:00,
2013-03-26 22:53:00,50.0,11.6,26.99,SSW,194,5.8,7.6,21,0.00,,,0.00,VWS V14.00,2013-03-27 04:53:00,
2013-03-26 22:54:00,50.0,11.6,26.99,South,187,3.1,7.6,21,0.00,,,0.00,VWS V14.00,2013-03-27 04:54:00,
2013-03-26 22:55:00,50.4,11.9,26.99,South,176,3.1,7.6,21,0.00,,,0.00,VWS V14.00,2013-03-27 04:55:00,
2013-03-26 22:58:00,50.2,11.8,26.99,SSW,193,4.0,4.0,21,0.00,,,0.00,VWS V14.00,2013-03-27 04:58:00,
2013-03-26 22:59:00,50.2,11.8,26.99,SSE,155,4.9,5.8,21,0.00,,,0.00,VWS V14.00,2013-03-27 04:59:00,
2013-03-26 23:00:00,50.0,11.6,26.99,South,174,2.7,5.8,21,0.00,,,0.00,VWS V14.00,2013-03-27 05:00:00,
2013-03-26 23:03:00,50.0,11.6,26.96,SSW,195,3.6,5.8,21,0.00,,,0.00,VWS V14.00,2013-03-27 05:03:00,
2013-03-26 23:04:00,50.4,11.9,26.96,South,183,5.4,6.3,21,0.00,,,0.00,VWS V14.00,2013-03-27 05:04:00,
2013-03-26 23:07:00,49.8,12.5,26.96,SE,138,4.0,7.2,22,0.00,,,0.00,VWS V14.00,2013-03-27 05:07:00,
2013-03-26 23:09:00,50.0,11.6,26.96,SSW,212,2.2,8.1,21,0.00,,,0.00,VWS V14.00,2013-03-27 05:09:00,
2013-03-26 23:10:00,49.8,12.5,26.96,South,180,4.9,8.1,22,0.00,,,0.00,VWS V14.00,2013-03-27 05:10:00,
2013-03-26 23:12:00,49.8,12.5,26.96,SSW,198,2.7,8.3,22,0.00,,,0.00,VWS V14.00,2013-03-27 05:12:00,
2013-03-26 23:13:00,49.6,12.4,26.96,SSW,198,2.2,8.3,22,0.00,,,0.00,VWS V14.00,2013-03-27 05:13:00,
2013-03-26 23:14:00,49.5,12.2,26.96,South,170,7.6,7.6,22,0.00,,,0.00,VWS V14.00,2013-03-27 05:14:00,
2013-03-26 23:15:00,49.6,12.4,26.96,South,179,8.7,8.7,22,0.00,,,0.00,VWS V14.00,2013-03-27 05:15:00,
2013-03-26 23:17:00,49.6,12.4,26.96,South,179,3.6,8.7,22,0.00,,,0.00,VWS V14.00,2013-03-27 05:17:00,
2013-03-26 23:18:00,49.6,12.4,26.96,South,183,5.4,8.7,22,0.00,,,0.00,VWS V14.00,2013-03-27 05:18:00,
2013-03-26 23:20:00,49.6,12.4,26.96,SSE,164,3.6,8.7,22,0.00,,,0.00,VWS V14.00,2013-03-27 05:20:00,
2013-03-26 23:21:00,50.0,11.6,26.96,SSE,168,4.9,8.7,21,0.00,,,0.00,VWS V14.00,2013-03-27 05:21:00,
2013-03-26 23:23:00,49.6,12.4,26.96,South,187,2.2,8.7,22,0.00,,,0.00,VWS V14.00,2013-03-27 05:23:00,
2013-03-26 23:25:00,49.3,12.1,26.96,South,183,0.0,8.7,22,0.00,,,0.00,VWS V14.00,2013-03-27 05:25:00,
2013-03-26 23:27:00,49.1,11.9,26.96,South,190,6.3,8.7,22,0.00,,,0.00,VWS V14.00,2013-03-27 05:27:00,
2013-03-26 23:28:00,48.9,11.8,26.96,South,190,3.1,5.8,22,0.00,,,0.00,VWS V14.00,2013-03-27 05:28:00,
2013-03-26 23:30:00,48.6,11.5,26.96,South,191,0.0,5.8,22,0.00,,,0.00,VWS V14.00,2013-03-27 05:30:00,
2013-03-26 23:32:00,48.7,11.6,26.96,South,183,3.1,6.3,22,0.00,,,0.00,VWS V14.00,2013-03-27 05:32:00,
2013-03-26 23:34:00,48.7,11.6,26.96,South,174,3.6,6.3,22,0.00,,,0.00,VWS V14.00,2013-03-27 05:34:00,
2013-03-26 23:35:00,48.6,11.5,26.96,SSE,167,3.1,6.3,22,0.00,,,0.00,VWS V14.00,2013-03-27 05:35:00,
2013-03-26 23:36:00,48.6,11.5,26.96,South,186,4.0,6.3,22,0.00,,,0.00,VWS V14.00,2013-03-27 05:36:00,
2013-03-26 23:39:00,49.6,12.4,26.96,SSW,211,6.3,8.3,22,0.00,,,0.00,VWS V14.00,2013-03-27 05:39:00,
2013-03-26 23:42:00,48.9,11.8,26.96,South,182,3.1,8.3,22,0.00,,,0.00,VWS V14.00,2013-03-27 05:42:00,
2013-03-26 23:43:00,49.1,11.9,26.96,SSE,168,2.7,8.3,22,0.00,,,0.00,VWS V14.00,2013-03-27 05:43:00,
2013-03-26 23:44:00,48.9,11.8,26.96,South,190,5.8,5.8,22,0.00,,,0.00,VWS V14.00,2013-03-27 05:44:00,
2013-03-26 23:45:00,49.3,12.1,26.96,South,179,6.3,6.3,22,0.00,,,0.00,VWS V14.00,2013-03-27 05:45:00,
2013-03-26 23:47:00,48.9,11.8,26.96,South,190,3.1,6.3,22,0.00,,,0.00,VWS V14.00,2013-03-27 05:47:00,
2013-03-26 23:48:00,48.7,11.6,26.93,South,182,4.9,6.3,22,0.00,,,0.00,VWS V14.00,2013-03-27 05:48:00,
2013-03-26 23:50:00,48.6,11.5,26.93,South,176,4.0,6.3,22,0.00,,,0.00,VWS V14.00,2013-03-27 05:50:00,
2013-03-26 23:51:00,48.9,11.8,26.93,South,190,7.6,7.6,22,0.00,,,0.00,VWS V14.00,2013-03-27 05:51:00,
2013-03-26 23:53:00,49.3,12.1,26.93,SSE,152,7.6,8.3,22,0.00,,,0.00,VWS V14.00,2013-03-27 05:53:00,
2013-03-26 23:55:00,48.9,11.8,26.93,South,172,4.0,10.1,22,0.00,,,0.00,VWS V14.00,2013-03-27 05:55:00,
2013-03-26 23:57:00,48.7,11.6,26.93,SSW,202,4.0,10.1,22,0.00,,,0.00,VWS V14.00,2013-03-27 05:57:00,
2013-03-26 23:58:00,48.6,11.5,26.93,SE,137,3.1,5.8,22,0.00,,,0.00,VWS V14.00,2013-03-27 05:58:00,